GEFSCGP_prec_meanprecacc_006.txt.gz
Total_Precipitation_Accumulation
0.01 0.01 0.01 0.02 0.03 0.01 0.01 0.00 0.00 0.00 0.00 0.00 0.00 0.00 0.00 0.00 0.00 0.00 0.00 0.00 0.00 0.00 0.00 0.00 0.00 0.00 0.00 0.00 0.00 0.03 0.06 0.08 0.09 0.17 0.24 0.29 0.34 0.35 0.29 0.29 0.34 0.28 0.15 0.07
0.00 0.00 0.00 0.00 0.00 0.00 0.00 0.00 0.00 0.00 0.00 0.00 0.00 0.00 0.00 0.00 0.00 0.00 0.00 0.00 0.00 0.00 0.00 0.00 0.00 0.00 0.00 0.00 0.01 0.03 0.04 0.06 0.11 0.18 0.25 0.34 0.43 0.45 0.41 0.37 0.34 0.29 0.22 0.13
0.00 0.00 0.00 0.00 0.00 0.00 0.00 0.00 0.00 0.00 0.00 0.00 0.00 0.00 0.00 0.00 0.00 0.00 0.00 0.00 0.00 0.00 0.00 0.00 0.00 0.00 0.00 0.00 0.00 0.02 0.04 0.09 0.15 0.21 0.26 0.25 0.29 0.27 0.27 0.25 0.23 0.24 0.21 0.15
0.00 0.00 0.00 0.00 0.00 0.00 0.00 0.00 0.00 0.00 0.00 0.00 0.00 0.00 0.00 0.00 0.00 0.00 0.00 0.00 0.00 0.00 0.00 0.00 0.00 0.00 0.00 0.00 0.00 0.00 0.02 0.04 0.08 0.13 0.14 0.11 0.10 0.09 0.11 0.14 0.15 0.18 0.22 0.21
0.00 0.00 0.00 0.00 0.00 0.00 0.00 0.00 0.00 0.00 0.00 0.00 0.00 0.00 0.00 0.00 0.00 0.00 0.00 0.00 0.00 0.00 0.00 0.00 0.00 0.00 0.00 0.00 0.00 0.00 0.01 0.01 0.02 0.03 0.04 0.05 0.03 0.01 0.04 0.10 0.13 0.16 0.26 0.31
0.00 0.00 0.00 0.00 0.00 0.00 0.00 0.00 0.00 0.00 0.00 0.00 0.00 0.00 0.00 0.00 0.00 0.00 0.00 0.00 0.00 0.00 0.00 0.00 0.00 0.00 0.00 0.00 0.00 0.00 0.00 0.00 0.00 0.01 0.01 0.01 0.01 0.01 0.02 0.06 0.12 0.21 0.31 0.44
0.00 0.00 0.00 0.00 0.00 0.00 0.00 0.00 0.00 0.00 0.00 0.00 0.00 0.00 0.00 0.00 0.00 0.00 0.00 0.00 0.00 0.00 0.00 0.00 0.00 0.00 0.00 0.00 0.00 0.00 0.00 0.00 0.00 0.00 0.00 0.00 0.01 0.01 0.02 0.05 0.12 0.28 0.35 0.49
0.00 0.00 0.00 0.00 0.00 0.00 0.00 0.00 0.00 0.00 0.00 0.00 0.00 0.00 0.00 0.00 0.00 0.00 0.00 0.00 0.00 0.00 0.00 0.00 0.00 0.00 0.00 0.00 0.00 0.00 0.00 0.00 0.00 0.00 0.00 0.00 0.00 0.01 0.02 0.04 0.05 0.21 0.36 0.45
0.00 0.00 0.00 0.00 0.00 0.00 0.00 0.00 0.00 0.00 0.00 0.00 0.00 0.00 0.00 0.00 0.00 0.00 0.00 0.00 0.00 0.00 0.00 0.00 0.00 0.00 0.00 0.00 0.00 0.00 0.00 0.00 0.00 0.00 0.00 0.00 0.00 0.01 0.02 0.02 0.01 0.05 0.17 0.24
0.00 0.00 0.00 0.00 0.00 0.00 0.00 0.00 0.00 0.00 0.00 0.00 0.00 0.00 0.00 0.00 0.00 0.00 0.00 0.00 0.00 0.00 0.00 0.00 0.00 0.00 0.00 0.00 0.00 0.00 0.00 0.00 0.00 0.00 0.00 0.00 0.00 0.00 0.01 0.01 0.00 0.01 0.04 0.07
0.01 0.00 0.00 0.00 0.00 0.01 0.01 0.01 0.02 0.02 0.00 0.00 0.00 0.00 0.00 0.00 0.00 0.00 0.00 0.00 0.00 0.00 0.00 0.00 0.00 0.00 0.00 0.00 0.00 0.00 0.00 0.00 0.00 0.00 0.00 0.00 0.00 0.00 0.00 0.01 0.01 0.00 0.02 0.02
0.02 0.02 0.01 0.01 0.01 0.02 0.05 0.07 0.08 0.07 0.04 0.01 0.00 0.00 0.00 0.00 0.00 0.00 0.01 0.01 0.01 0.01 0.00 0.00 0.00 0.00 0.00 0.00 0.00 0.00 0.00 0.00 0.00 0.00 0.00 0.00 0.00 0.00 0.00 0.01 0.02 0.02 0.02 0.01
0.02 0.04 0.07 0.06 0.03 0.03 0.05 0.06 0.07 0.06 0.04 0.01 0.00 0.00 0.00 0.00 0.00 0.01 0.01 0.02 0.02 0.01 0.00 0.00 0.00 0.00 0.00 0.00 0.00 0.00 0.00 0.00 0.00 0.00 0.00 0.00 0.00 0.00 0.00 0.01 0.03 0.03 0.02 0.01
0.02 0.03 0.05 0.05 0.04 0.02 0.01 0.00 0.00 0.00 0.00 0.00 0.00 0.00 0.00 0.00 0.00 0.00 0.01 0.02 0.02 0.01 0.01 0.00 0.00 0.00 0.00 0.00 0.00 0.00 0.00 0.00 0.00 0.00 0.00 0.00 0.01 0.01 0.00 0.01 0.01 0.03 0.02 0.01
0.02 0.01 0.01 0.01 0.01 0.00 0.00 0.00 0.00 0.00 0.00 0.00 0.00 0.00 0.00 0.01 0.01 0.01 0.01 0.01 0.01 0.01 0.01 0.00 0.00 0.00 0.00 0.00 0.00 0.00 0.01 0.00 0.01 0.01 0.01 0.00 0.01 0.01 0.01 0.01 0.01 0.01 0.02 0.01
0.01 0.00 0.00 0.00 0.00 0.00 0.00 0.00 0.00 0.00 0.00 0.00 0.00 0.00 0.00 0.01 0.01 0.01 0.01 0.01 0.01 0.01 0.00 0.00 0.00 0.00 0.00 0.00 0.00 0.01 0.02 0.02 0.02 0.02 0.02 0.02 0.01 0.01 0.01 0.01 0.02 0.02 0.02 0.02
0.00 0.01 0.00 0.00 0.00 0.00 0.00 0.00 0.00 0.00 0.00 0.00 0.00 0.00 0.00 0.00 0.00 0.00 0.00 0.00 0.00 0.00 0.00 0.00 0.00 0.00 0.00 0.00 0.02 0.04 0.06 0.06 0.07 0.09 0.09 0.06 0.04 0.03 0.02 0.03 0.05 0.06 0.06 0.04
0.00 0.00 0.01 0.01 0.01 0.00 0.00 0.00 0.00 0.00 0.00 0.00 0.00 0.00 0.00 0.00 0.01 0.01 0.00 0.00 0.00 0.00 0.00 0.00 0.00 0.00 0.01 0.02 0.04 0.08 0.11 0.10 0.11 0.18 0.20 0.14 0.07 0.08 0.08 0.08 0.08 0.10 0.08 0.06
0.04 0.02 0.02 0.02 0.01 0.00 0.00 0.00 0.00 0.00 0.00 0.00 0.00 0.00 0.00 0.00 0.01 0.00 0.00 0.00 0.00 0.00 0.00 0.00 0.00 0.00 0.00 0.00 0.01 0.02 0.05 0.08 0.09 0.11 0.17 0.17 0.14 0.15 0.17 0.16 0.16 0.13 0.09 0.08
0.12 0.08 0.06 0.04 0.02 0.01 0.00 0.00 0.00 0.00 0.00 0.00 0.00 0.00 0.00 0.00 0.00 0.00 0.00 0.00 0.00 0.00 0.00 0.00 0.00 0.00 0.00 0.00 0.00 0.00 0.01 0.02 0.05 0.06 0.10 0.15 0.16 0.18 0.21 0.24 0.26 0.18 0.13 0.12
0.08 0.09 0.07 0.05 0.03 0.01 0.00 0.00 0.00 0.00 0.00 0.00 0.00 0.00 0.00 0.00 0.00 0.00 0.00 0.00 0.00 0.00 0.00 0.00 0.00 0.00 0.00 0.00 0.00 0.00 0.00 0.01 0.01 0.02 0.03 0.06 0.10 0.15 0.21 0.24 0.22 0.17 0.14 0.10
0.13 0.18 0.15 0.08 0.04 0.03 0.01 0.01 0.00 0.00 0.00 0.00 0.00 0.00 0.00 0.00 0.00 0.00 0.00 0.00 0.00 0.00 0.00 0.00 0.00 0.00 0.00 0.00 0.00 0.00 0.00 0.00 0.00 0.00 0.01 0.02 0.04 0.06 0.11 0.15 0.17 0.16 0.15 0.10
0.16 0.33 0.36 0.21 0.08 0.03 0.01 0.00 0.00 0.00 0.00 0.00 0.00 0.00 0.00 0.00 0.00 0.00 0.00 0.00 0.00 0.00 0.00 0.00 0.00 0.00 0.00 0.00 0.00 0.00 0.00 0.00 0.00 0.00 0.00 0.00 0.00 0.01 0.04 0.10 0.13 0.14 0.16 0.14
0.05 0.10 0.10 0.09 0.07 0.02 0.00 0.00 0.00 0.00 0.00 0.00 0.00 0.00 0.00 0.00 0.00 0.00 0.00 0.00 0.00 0.00 0.00 0.00 0.00 0.00 0.00 0.00 0.00 0.00 0.00 0.00 0.00 0.00 0.00 0.00 0.00 0.00 0.01 0.03 0.09 0.15 0.14 0.08
0.01 0.01 0.01 0.01 0.01 0.00 0.00 0.00 0.00 0.00 0.00 0.00 0.00 0.00 0.00 0.00 0.00 0.00 0.00 0.00 0.00 0.00 0.00 0.00 0.00 0.00 0.00 0.00 0.00 0.00 0.00 0.00 0.00 0.00 0.00 0.00 0.00 0.00 0.00 0.01 0.05 0.09 0.09 0.04
0.00 0.00 0.00 0.00 0.00 0.00 0.00 0.00 0.00 0.00 0.00 0.00 0.00 0.00 0.00 0.00 0.00 0.00 0.00 0.00 0.00 0.00 0.00 0.00 0.00 0.00 0.00 0.00 0.00 0.00 0.00 0.00 0.00 0.00 0.00 0.00 0.00 0.00 0.00 0.00 0.02 0.03 0.03 0.02

GEFSCGP_prec_meanprecacc_012.txt.gz
Total_Precipitation_Accumulation
0.02 0.04 0.08 0.11 0.13 0.08 0.03 0.01 0.00 0.00 0.00 0.00 0.00 0.00 0.00 0.00 0.00 0.00 0.00 0.00 0.00 0.00 0.00 0.00 0.00 0.00 0.00 0.00 0.00 0.03 0.06 0.12 0.18 0.26 0.36 0.51 0.57 0.59 0.54 0.57 0.60 0.47 0.29 0.23
0.01 0.01 0.02 0.02 0.02 0.04 0.03 0.02 0.01 0.00 0.00 0.00 0.00 0.00 0.00 0.00 0.00 0.00 0.00 0.00 0.00 0.00 0.00 0.00 0.00 0.00 0.00 0.00 0.01 0.03 0.04 0.08 0.15 0.24 0.33 0.49 0.63 0.62 0.58 0.59 0.60 0.55 0.43 0.35
0.01 0.01 0.00 0.00 0.01 0.02 0.02 0.02 0.01 0.00 0.00 0.00 0.00 0.00 0.00 0.00 0.00 0.00 0.00 0.00 0.00 0.00 0.00 0.00 0.00 0.00 0.00 0.00 0.00 0.02 0.04 0.09 0.17 0.27 0.33 0.34 0.37 0.35 0.35 0.37 0.42 0.47 0.47 0.41
0.00 0.00 0.00 0.00 0.01 0.01 0.02 0.01 0.01 0.00 0.00 0.00 0.00 0.00 0.00 0.00 0.00 0.00 0.00 0.00 0.00 0.00 0.00 0.00 0.00 0.00 0.00 0.00 0.00 0.00 0.02 0.04 0.09 0.17 0.20 0.18 0.21 0.22 0.22 0.26 0.28 0.34 0.39 0.41
0.00 0.00 0.00 0.00 0.01 0.01 0.01 0.01 0.00 0.00 0.00 0.00 0.00 0.00 0.00 0.00 0.00 0.00 0.00 0.00 0.00 0.00 0.00 0.00 0.00 0.00 0.00 0.00 0.00 0.00 0.01 0.01 0.03 0.04 0.07 0.08 0.06 0.06 0.07 0.13 0.17 0.23 0.34 0.40
0.00 0.00 0.00 0.00 0.00 0.00 0.01 0.01 0.01 0.01 0.00 0.00 0.00 0.00 0.00 0.00 0.00 0.00 0.00 0.00 0.00 0.00 0.00 0.00 0.00 0.00 0.00 0.00 0.00 0.00 0.00 0.00 0.01 0.01 0.02 0.02 0.02 0.02 0.03 0.06 0.14 0.24 0.33 0.48
0.00 0.00 0.00 0.00 0.00 0.00 0.00 0.01 0.01 0.01 0.01 0.00 0.00 0.00 0.00 0.00 0.00 0.00 0.00 0.00 0.00 0.00 0.00 0.00 0.00 0.00 0.00 0.00 0.00 0.00 0.00 0.00 0.00 0.00 0.00 0.00 0.01 0.01 0.02 0.05 0.12 0.29 0.35 0.51
0.00 0.00 0.00 0.00 0.00 0.00 0.00 0.00 0.00 0.00 0.00 0.00 0.00 0.00 0.00 0.00 0.00 0.00 0.00 0.00 0.00 0.00 0.00 0.00 0.00 0.00 0.00 0.00 0.00 0.00 0.00 0.00 0.00 0.00 0.00 0.00 0.00 0.01 0.02 0.04 0.06 0.22 0.37 0.48
0.00 0.00 0.00 0.00 0.00 0.00 0.00 0.00 0.00 0.00 0.00 0.00 0.00 0.00 0.00 0.00 0.00 0.00 0.00 0.00 0.00 0.00 0.00 0.00 0.00 0.00 0.00 0.00 0.00 0.00 0.00 0.00 0.00 0.00 0.00 0.00 0.00 0.01 0.03 0.02 0.01 0.06 0.19 0.27
0.01 0.00 0.00 0.00 0.00 0.00 0.00 0.00 0.00 0.00 0.00 0.00 0.00 0.00 0.00 0.00 0.00 0.00 0.00 0.00 0.00 0.00 0.00 0.00 0.00 0.00 0.00 0.00 0.00 0.00 0.00 0.00 0.00 0.00 0.00 0.00 0.00 0.00 0.01 0.01 0.01 0.01 0.05 0.09
0.03 0.02 0.01 0.01 0.01 0.01 0.02 0.02 0.03 0.04 0.02 0.01 0.02 0.01 0.00 0.00 0.00 0.00 0.00 0.00 0.00 0.00 0.00 0.00 0.00 0.00 0.00 0.00 0.00 0.00 0.00 0.00 0.00 0.00 0.00 0.00 0.00 0.00 0.00 0.01 0.01 0.01 0.03 0.05
0.05 0.07 0.04 0.02 0.02 0.04 0.08 0.11 0.13 0.17 0.13 0.06 0.04 0.02 0.01 0.00 0.00 0.00 0.01 0.02 0.02 0.01 0.01 0.00 0.00 0.00 0.00 0.00 0.00 0.00 0.00 0.00 0.00 0.00 0.00 0.00 0.00 0.00 0.00 0.01 0.02 0.02 0.03 0.03
0.10 0.14 0.11 0.07 0.06 0.07 0.10 0.10 0.10 0.12 0.11 0.07 0.04 0.02 0.01 0.01 0.00 0.01 0.02 0.02 0.02 0.02 0.01 0.01 0.01 0.01 0.00 0.00 0.00 0.00 0.00 0.00 0.00 0.00 0.00 0.00 0.00 0.00 0.00 0.01 0.03 0.03 0.03 0.02
0.16 0.18 0.15 0.11 0.09 0.06 0.03 0.02 0.02 0.04 0.07 0.04 0.02 0.00 0.00 0.00 0.00 0.00 0.01 0.02 0.02 0.02 0.02 0.01 0.01 0.00 0.00 0.00 0.00 0.00 0.00 0.00 0.00 0.00 0.00 0.00 0.01 0.01 0.01 0.01 0.02 0.03 0.03 0.02
0.11 0.11 0.10 0.07 0.05 0.02 0.01 0.01 0.00 0.01 0.03 0.02 0.00 0.00 0.00 0.01 0.01 0.01 0.01 0.01 0.02 0.02 0.02 0.01 0.01 0.00 0.00 0.00 0.00 0.00 0.01 0.00 0.01 0.01 0.01 0.01 0.01 0.02 0.02 0.03 0.02 0.03 0.04 0.03
0.03 0.03 0.02 0.01 0.01 0.00 0.00 0.00 0.00 0.01 0.01 0.01 0.00 0.00 0.00 0.01 0.01 0.01 0.01 0.01 0.01 0.01 0.01 0.01 0.00 0.00 0.00 0.00 0.00 0.01 0.02 0.02 0.02 0.02 0.02 0.02 0.02 0.03 0.04 0.04 0.03 0.03 0.04 0.03
0.01 0.02 0.02 0.01 0.01 0.00 0.01 0.02 0.02 0.02 0.00 0.00 0.00 0.00 0.00 0.00 0.00 0.00 0.00 0.00 0.00 0.00 0.00 0.00 0.00 0.00 0.00 0.00 0.02 0.05 0.06 0.07 0.08 0.10 0.09 0.06 0.05 0.06 0.06 0.06 0.07 0.07 0.07 0.05
0.00 0.02 0.02 0.02 0.02 0.02 0.03 0.02 0.02 0.01 0.00 0.00 0.00 0.00 0.00 0.00 0.01 0.01 0.00 0.00 0.00 0.00 0.00 0.00 0.00 0.00 0.01 0.02 0.04 0.08 0.12 0.11 0.13 0.20 0.22 0.15 0.09 0.11 0.13 0.11 0.10 0.14 0.13 0.10
0.09 0.05 0.05 0.04 0.04 0.04 0.04 0.03 0.02 0.02 0.01 0.00 0.00 0.00 0.00 0.00 0.01 0.00 0.00 0.00 0.00 0.00 0.00 0.00 0.00 0.00 0.00 0.00 0.01 0.03 0.05 0.09 0.11 0.14 0.19 0.20 0.17 0.18 0.21 0.20 0.21 0.21 0.18 0.17
0.22 0.16 0.16 0.15 0.14 0.13 0.07 0.03 0.01 0.02 0.03 0.00 0.00 0.00 0.00 0.00 0.00 0.00 0.00 0.00 0.00 0.00 0.00 0.00 0.00 0.00 0.00 0.00 0.00 0.00 0.01 0.02 0.05 0.07 0.11 0.16 0.18 0.20 0.25 0.31 0.34 0.28 0.23 0.22
0.14 0.19 0.27 0.33 0.38 0.41 0.25 0.08 0.03 0.06 0.06 0.00 0.00 0.00 0.00 0.00 0.00 0.00 0.00 0.00 0.00 0.00 0.00 0.00 0.00 0.00 0.00 0.00 0.00 0.00 0.00 0.01 0.01 0.02 0.04 0.07 0.11 0.16 0.24 0.30 0.27 0.24 0.24 0.23
0.20 0.32 0.45 0.54 0.66 0.77 0.45 0.21 0.14 0.12 0.04 0.00 0.00 0.00 0.00 0.00 0.00 0.00 0.00 0.00 0.00 0.00 0.00 0.00 0.00 0.00 0.00 0.00 0.00 0.00 0.00 0.00 0.00 0.00 0.01 0.02 0.04 0.07 0.12 0.18 0.20 0.21 0.22 0.21
0.20 0.43 0.60 0.59 0.59 0.54 0.36 0.21 0.12 0.08 0.03 0.00 0.00 0.00 0.00 0.00 0.00 0.00 0.00 0.00 0.00 0.00 0.00 0.00 0.00 0.00 0.00 0.00 0.00 0.00 0.00 0.00 0.00 0.00 0.00 0.00 0.01 0.01 0.05 0.10 0.14 0.18 0.22 0.22
0.06 0.12 0.15 0.17 0.20 0.18 0.14 0.08 0.04 0.02 0.01 0.00 0.00 0.00 0.00 0.00 0.00 0.00 0.00 0.00 0.00 0.00 0.00 0.00 0.00 0.00 0.00 0.00 0.00 0.00 0.00 0.00 0.00 0.00 0.00 0.00 0.00 0.00 0.01 0.04 0.10 0.18 0.20 0.14
0.01 0.02 0.02 0.03 0.04 0.05 0.06 0.03 0.01 0.01 0.00 0.00 0.00 0.00 0.00 0.00 0.00 0.00 0.00 0.00 0.00 0.00 0.00 0.00 0.00 0.00 0.00 0.00 0.00 0.00 0.00 0.00 0.00 0.00 0.00 0.00 0.00 0.00 0.00 0.01 0.05 0.11 0.12 0.10
0.00 0.01 0.01 0.01 0.01 0.02 0.03 0.02 0.00 0.00 0.00 0.00 0.00 0.00 0.00 0.00 0.00 0.00 0.00 0.00 0.00 0.00 0.00 0.00 0.00 0.00 0.00 0.00 0.00 0.00 0.00 0.00 0.00 0.00 0.00 0.00 0.00 0.00 0.00 0.01 0.02 0.04 0.05 0.06

GEFSCGP_prec_meanprecacc_018.txt.gz
Total_Precipitation_Accumulation
0.03 0.08 0.22 0.26 0.26 0.16 0.07 0.04 0.03 0.04 0.06 0.04 0.03 0.02 0.01 0.00 0.00 0.00 0.00 0.00 0.00 0.00 0.00 0.00 0.00 0.00 0.00 0.00 0.00 0.03 0.06 0.12 0.20 0.34 0.53 0.76 0.84 0.84 0.77 0.79 0.72 0.54 0.31 0.24
0.02 0.04 0.06 0.05 0.05 0.06 0.05 0.06 0.05 0.03 0.05 0.03 0.02 0.01 0.01 0.00 0.00 0.00 0.00 0.00 0.00 0.00 0.00 0.00 0.00 0.00 0.00 0.00 0.01 0.03 0.04 0.08 0.16 0.28 0.41 0.62 0.80 0.76 0.70 0.72 0.72 0.63 0.47 0.36
0.02 0.03 0.01 0.01 0.02 0.03 0.06 0.09 0.09 0.06 0.04 0.03 0.02 0.01 0.00 0.00 0.00 0.00 0.00 0.00 0.00 0.00 0.00 0.00 0.00 0.00 0.00 0.00 0.00 0.02 0.04 0.09 0.17 0.28 0.36 0.41 0.52 0.52 0.57 0.59 0.62 0.63 0.57 0.46
0.00 0.01 0.00 0.01 0.01 0.02 0.06 0.05 0.05 0.04 0.04 0.03 0.03 0.03 0.00 0.00 0.00 0.00 0.00 0.00 0.00 0.00 0.00 0.00 0.00 0.00 0.00 0.00 0.00 0.00 0.02 0.04 0.09 0.17 0.22 0.24 0.33 0.37 0.36 0.39 0.45 0.48 0.50 0.49
0.00 0.00 0.00 0.00 0.01 0.02 0.03 0.03 0.03 0.03 0.03 0.03 0.02 0.03 0.01 0.00 0.00 0.00 0.00 0.00 0.00 0.00 0.00 0.00 0.00 0.00 0.00 0.00 0.00 0.00 0.01 0.01 0.03 0.05 0.08 0.12 0.13 0.14 0.14 0.20 0.32 0.38 0.46 0.51
0.00 0.00 0.00 0.00 0.00 0.01 0.01 0.02 0.03 0.03 0.04 0.04 0.02 0.04 0.02 0.00 0.00 0.00 0.00 0.00 0.00 0.00 0.00 0.00 0.00 0.00 0.00 0.00 0.00 0.00 0.00 0.00 0.01 0.01 0.02 0.03 0.06 0.06 0.08 0.14 0.25 0.37 0.46 0.60
0.00 0.00 0.00 0.00 0.00 0.00 0.01 0.03 0.07 0.08 0.09 0.06 0.02 0.03 0.02 0.01 0.00 0.00 0.00 0.00 0.00 0.00 0.00 0.00 0.00 0.00 0.00 0.00 0.00 0.00 0.00 0.00 0.00 0.00 0.00 0.01 0.01 0.02 0.04 0.08 0.18 0.36 0.43 0.59
0.00 0.00 0.00 0.00 0.00 0.00 0.00 0.01 0.06 0.08 0.08 0.06 0.03 0.02 0.01 0.00 0.00 0.00 0.00 0.00 0.00 0.00 0.00 0.00 0.00 0.00 0.00 0.00 0.00 0.00 0.00 0.00 0.00 0.00 0.00 0.00 0.00 0.01 0.03 0.05 0.09 0.27 0.43 0.53
0.00 0.00 0.00 0.00 0.00 0.00 0.00 0.00 0.00 0.02 0.02 0.03 0.02 0.01 0.01 0.00 0.00 0.00 0.00 0.00 0.01 0.00 0.00 0.00 0.00 0.00 0.00 0.00 0.00 0.00 0.00 0.00 0.00 0.00 0.00 0.00 0.00 0.01 0.03 0.03 0.03 0.10 0.23 0.30
0.01 0.00 0.00 0.00 0.00 0.00 0.00 0.00 0.01 0.04 0.08 0.07 0.03 0.03 0.04 0.03 0.02 0.01 0.01 0.01 0.01 0.02 0.02 0.01 0.00 0.00 0.00 0.00 0.00 0.00 0.00 0.00 0.00 0.00 0.00 0.00 0.00 0.00 0.01 0.02 0.02 0.02 0.07 0.11
0.03 0.03 0.01 0.01 0.01 0.02 0.04 0.04 0.06 0.10 0.09 0.12 0.14 0.11 0.08 0.10 0.10 0.10 0.08 0.07 0.09 0.11 0.11 0.08 0.05 0.03 0.01 0.00 0.00 0.00 0.00 0.00 0.00 0.00 0.00 0.00 0.00 0.00 0.01 0.01 0.01 0.01 0.03 0.06
0.05 0.11 0.07 0.02 0.03 0.06 0.12 0.16 0.20 0.35 0.29 0.19 0.21 0.15 0.07 0.09 0.12 0.10 0.07 0.06 0.05 0.05 0.05 0.04 0.04 0.02 0.01 0.00 0.00 0.00 0.00 0.00 0.00 0.00 0.00 0.00 0.00 0.00 0.00 0.01 0.02 0.02 0.03 0.04
0.12 0.21 0.20 0.13 0.16 0.23 0.23 0.21 0.16 0.18 0.25 0.21 0.19 0.12 0.06 0.08 0.10 0.10 0.08 0.07 0.05 0.03 0.02 0.02 0.02 0.01 0.00 0.00 0.00 0.00 0.01 0.01 0.00 0.00 0.00 0.00 0.00 0.00 0.00 0.01 0.03 0.03 0.04 0.04
0.18 0.24 0.27 0.28 0.31 0.33 0.29 0.17 0.07 0.09 0.23 0.19 0.12 0.08 0.07 0.08 0.06 0.03 0.03 0.03 0.03 0.03 0.03 0.02 0.01 0.00 0.00 0.00 0.00 0.00 0.01 0.00 0.00 0.00 0.00 0.00 0.01 0.01 0.01 0.01 0.02 0.03 0.04 0.04
0.12 0.13 0.15 0.14 0.10 0.09 0.10 0.07 0.03 0.03 0.07 0.12 0.07 0.04 0.04 0.05 0.04 0.02 0.02 0.02 0.02 0.02 0.02 0.01 0.01 0.00 0.00 0.00 0.00 0.00 0.01 0.01 0.02 0.01 0.01 0.01 0.01 0.02 0.02 0.03 0.02 0.03 0.05 0.05
0.04 0.04 0.02 0.02 0.03 0.02 0.03 0.05 0.05 0.06 0.06 0.06 0.06 0.05 0.02 0.02 0.02 0.01 0.01 0.01 0.01 0.01 0.01 0.01 0.00 0.00 0.00 0.00 0.00 0.01 0.02 0.03 0.03 0.03 0.02 0.02 0.02 0.03 0.04 0.05 0.04 0.03 0.05 0.05
0.01 0.03 0.05 0.04 0.02 0.03 0.15 0.20 0.21 0.15 0.05 0.04 0.04 0.03 0.01 0.01 0.01 0.01 0.02 0.01 0.01 0.01 0.01 0.00 0.00 0.00 0.00 0.01 0.02 0.05 0.06 0.08 0.09 0.10 0.09 0.06 0.06 0.07 0.08 0.09 0.09 0.11 0.12 0.11
0.03 0.08 0.11 0.08 0.07 0.16 0.37 0.29 0.21 0.19 0.08 0.02 0.01 0.00 0.00 0.02 0.05 0.04 0.03 0.02 0.02 0.01 0.02 0.01 0.01 0.01 0.02 0.02 0.04 0.09 0.12 0.12 0.14 0.21 0.24 0.17 0.12 0.15 0.18 0.18 0.18 0.24 0.23 0.18
0.11 0.13 0.16 0.16 0.16 0.25 0.32 0.21 0.17 0.24 0.23 0.06 0.01 0.01 0.00 0.02 0.05 0.02 0.02 0.03 0.03 0.02 0.02 0.02 0.02 0.02 0.02 0.02 0.02 0.04 0.08 0.11 0.14 0.17 0.23 0.23 0.19 0.22 0.27 0.27 0.31 0.33 0.31 0.32
0.23 0.20 0.23 0.23 0.24 0.35 0.28 0.12 0.08 0.18 0.34 0.10 0.02 0.01 0.00 0.01 0.01 0.01 0.02 0.01 0.02 0.01 0.01 0.01 0.01 0.01 0.01 0.01 0.01 0.01 0.02 0.04 0.06 0.08 0.12 0.17 0.18 0.21 0.27 0.35 0.40 0.36 0.33 0.35
0.14 0.21 0.29 0.37 0.46 0.61 0.42 0.18 0.11 0.25 0.33 0.11 0.02 0.00 0.00 0.00 0.00 0.00 0.01 0.01 0.00 0.00 0.00 0.00 0.00 0.00 0.00 0.00 0.01 0.01 0.01 0.01 0.02 0.02 0.04 0.07 0.11 0.16 0.25 0.31 0.30 0.29 0.30 0.30
0.20 0.32 0.46 0.55 0.71 0.88 0.57 0.33 0.29 0.25 0.13 0.04 0.01 0.00 0.00 0.00 0.00 0.00 0.01 0.00 0.00 0.00 0.00 0.00 0.00 0.00 0.00 0.00 0.00 0.00 0.00 0.00 0.00 0.00 0.01 0.02 0.04 0.07 0.12 0.19 0.22 0.23 0.26 0.25
0.21 0.44 0.61 0.60 0.61 0.57 0.41 0.30 0.20 0.15 0.08 0.01 0.00 0.00 0.00 0.00 0.00 0.00 0.00 0.00 0.00 0.00 0.00 0.00 0.00 0.00 0.00 0.00 0.00 0.00 0.00 0.00 0.00 0.00 0.00 0.00 0.01 0.02 0.05 0.11 0.16 0.19 0.24 0.26
0.06 0.12 0.16 0.18 0.21 0.19 0.16 0.11 0.07 0.06 0.04 0.01 0.00 0.00 0.00 0.00 0.00 0.00 0.00 0.00 0.00 0.00 0.00 0.00 0.00 0.00 0.00 0.00 0.00 0.00 0.00 0.00 0.00 0.00 0.00 0.00 0.00 0.01 0.01 0.05 0.12 0.20 0.23 0.20
0.02 0.02 0.02 0.04 0.05 0.06 0.07 0.05 0.03 0.03 0.02 0.01 0.00 0.00 0.00 0.00 0.00 0.00 0.00 0.00 0.00 0.00 0.00 0.00 0.00 0.00 0.00 0.00 0.00 0.00 0.00 0.00 0.00 0.00 0.00 0.00 0.00 0.00 0.01 0.02 0.06 0.12 0.14 0.13
0.01 0.01 0.02 0.01 0.01 0.02 0.04 0.02 0.01 0.02 0.01 0.00 0.00 0.00 0.00 0.00 0.00 0.00 0.00 0.00 0.00 0.00 0.00 0.00 0.00 0.00 0.00 0.00 0.00 0.00 0.00 0.00 0.00 0.00 0.00 0.00 0.00 0.00 0.00 0.01 0.02 0.04 0.05 0.07

GEFSCGP_prec_meanprecacc_024.txt.gz
Total_Precipitation_Accumulation
0.04 0.10 0.26 0.32 0.33 0.23 0.14 0.09 0.08 0.09 0.11 0.09 0.09 0.10 0.10 0.09 0.08 0.06 0.05 0.04 0.03 0.03 0.02 0.02 0.01 0.00 0.00 0.00 0.01 0.04 0.07 0.13 0.22 0.38 0.61 0.91 1.05 1.07 1.07 1.10 0.96 0.69 0.43 0.37
0.02 0.05 0.08 0.07 0.07 0.08 0.07 0.08 0.07 0.06 0.08 0.06 0.05 0.04 0.03 0.03 0.04 0.04 0.04 0.04 0.03 0.04 0.03 0.02 0.01 0.00 0.00 0.00 0.01 0.04 0.05 0.10 0.18 0.33 0.51 0.76 0.93 0.89 0.85 0.89 0.89 0.78 0.60 0.53
0.02 0.03 0.01 0.01 0.02 0.04 0.06 0.09 0.10 0.07 0.05 0.04 0.03 0.02 0.01 0.01 0.01 0.01 0.02 0.02 0.03 0.03 0.03 0.01 0.01 0.00 0.00 0.00 0.01 0.03 0.05 0.09 0.19 0.33 0.43 0.48 0.58 0.58 0.65 0.68 0.72 0.75 0.72 0.66
0.00 0.01 0.00 0.01 0.01 0.02 0.06 0.05 0.05 0.04 0.04 0.04 0.03 0.03 0.01 0.00 0.00 0.00 0.01 0.01 0.02 0.02 0.01 0.01 0.00 0.01 0.01 0.01 0.01 0.01 0.02 0.04 0.11 0.20 0.25 0.26 0.34 0.39 0.39 0.43 0.52 0.58 0.65 0.68
0.00 0.00 0.00 0.00 0.01 0.02 0.03 0.03 0.03 0.04 0.04 0.04 0.03 0.04 0.01 0.00 0.00 0.00 0.01 0.01 0.02 0.02 0.01 0.00 0.01 0.01 0.01 0.01 0.01 0.01 0.01 0.02 0.03 0.05 0.09 0.12 0.14 0.15 0.18 0.25 0.38 0.44 0.55 0.64
0.00 0.00 0.00 0.00 0.00 0.01 0.01 0.02 0.04 0.05 0.06 0.05 0.03 0.05 0.04 0.01 0.01 0.01 0.01 0.01 0.02 0.02 0.01 0.02 0.02 0.03 0.02 0.03 0.02 0.02 0.01 0.01 0.01 0.01 0.02 0.03 0.06 0.07 0.11 0.17 0.29 0.41 0.52 0.67
0.00 0.00 0.00 0.00 0.00 0.00 0.01 0.04 0.10 0.12 0.14 0.10 0.05 0.07 0.07 0.03 0.01 0.01 0.01 0.01 0.02 0.03 0.04 0.06 0.06 0.05 0.04 0.02 0.01 0.01 0.00 0.00 0.00 0.00 0.00 0.01 0.02 0.02 0.05 0.10 0.20 0.38 0.46 0.62
0.00 0.00 0.00 0.00 0.00 0.00 0.01 0.03 0.09 0.12 0.12 0.11 0.08 0.09 0.08 0.04 0.03 0.03 0.03 0.03 0.05 0.09 0.11 0.12 0.11 0.08 0.05 0.02 0.00 0.00 0.00 0.00 0.00 0.00 0.00 0.01 0.01 0.01 0.03 0.06 0.10 0.28 0.44 0.54
0.00 0.00 0.00 0.00 0.00 0.00 0.01 0.02 0.04 0.08 0.07 0.06 0.06 0.09 0.09 0.07 0.06 0.05 0.06 0.07 0.13 0.22 0.26 0.25 0.19 0.11 0.06 0.02 0.01 0.00 0.00 0.00 0.00 0.00 0.00 0.00 0.00 0.01 0.03 0.03 0.03 0.10 0.23 0.30
0.01 0.00 0.00 0.00 0.00 0.01 0.02 0.04 0.07 0.14 0.19 0.15 0.11 0.16 0.18 0.17 0.16 0.14 0.14 0.17 0.26 0.39 0.46 0.47 0.41 0.24 0.08 0.02 0.01 0.00 0.00 0.00 0.00 0.00 0.00 0.00 0.00 0.00 0.01 0.02 0.02 0.02 0.07 0.11
0.03 0.03 0.01 0.01 0.02 0.04 0.08 0.11 0.15 0.23 0.25 0.30 0.33 0.36 0.28 0.24 0.26 0.32 0.38 0.43 0.51 0.60 0.67 0.66 0.50 0.29 0.10 0.03 0.01 0.01 0.00 0.00 0.00 0.00 0.00 0.00 0.00 0.00 0.01 0.01 0.01 0.01 0.03 0.06
0.05 0.11 0.07 0.03 0.06 0.08 0.17 0.28 0.38 0.57 0.53 0.40 0.44 0.49 0.31 0.22 0.25 0.27 0.31 0.37 0.44 0.45 0.43 0.42 0.31 0.16 0.09 0.06 0.03 0.03 0.02 0.01 0.02 0.03 0.02 0.01 0.01 0.01 0.01 0.01 0.02 0.02 0.03 0.04
0.12 0.22 0.21 0.14 0.19 0.25 0.28 0.33 0.40 0.45 0.53 0.48 0.45 0.43 0.28 0.19 0.17 0.19 0.19 0.18 0.18 0.17 0.16 0.15 0.12 0.09 0.05 0.04 0.04 0.05 0.05 0.06 0.08 0.10 0.07 0.04 0.02 0.01 0.01 0.01 0.03 0.04 0.04 0.04
0.18 0.25 0.29 0.31 0.35 0.38 0.38 0.30 0.26 0.33 0.46 0.42 0.31 0.23 0.18 0.15 0.11 0.09 0.10 0.10 0.08 0.07 0.07 0.07 0.06 0.05 0.03 0.03 0.03 0.04 0.06 0.10 0.16 0.22 0.18 0.09 0.04 0.03 0.02 0.02 0.02 0.04 0.05 0.05
0.12 0.13 0.15 0.15 0.12 0.15 0.27 0.35 0.28 0.28 0.28 0.32 0.16 0.09 0.09 0.09 0.10 0.10 0.11 0.10 0.06 0.05 0.05 0.04 0.04 0.03 0.03 0.03 0.04 0.05 0.10 0.17 0.29 0.36 0.26 0.14 0.08 0.06 0.07 0.07 0.05 0.06 0.08 0.08
0.04 0.04 0.03 0.03 0.04 0.09 0.26 0.33 0.31 0.26 0.17 0.13 0.09 0.08 0.04 0.06 0.08 0.09 0.11 0.10 0.08 0.07 0.07 0.06 0.05 0.04 0.05 0.04 0.06 0.08 0.14 0.25 0.39 0.43 0.34 0.19 0.13 0.11 0.13 0.14 0.11 0.11 0.12 0.12
0.01 0.03 0.05 0.04 0.06 0.12 0.33 0.36 0.39 0.24 0.09 0.05 0.05 0.04 0.02 0.03 0.06 0.07 0.13 0.16 0.14 0.12 0.12 0.11 0.11 0.10 0.10 0.10 0.13 0.20 0.24 0.32 0.39 0.39 0.35 0.28 0.23 0.22 0.21 0.19 0.20 0.21 0.23 0.22
0.03 0.08 0.11 0.09 0.11 0.32 0.57 0.44 0.37 0.28 0.12 0.04 0.02 0.01 0.01 0.04 0.10 0.11 0.15 0.20 0.18 0.16 0.15 0.16 0.16 0.16 0.17 0.18 0.19 0.28 0.32 0.32 0.35 0.42 0.42 0.36 0.31 0.28 0.28 0.27 0.28 0.35 0.34 0.30
0.11 0.13 0.16 0.16 0.19 0.37 0.45 0.30 0.25 0.32 0.30 0.08 0.02 0.02 0.03 0.04 0.07 0.06 0.10 0.15 0.15 0.12 0.12 0.12 0.12 0.11 0.11 0.10 0.09 0.12 0.16 0.20 0.24 0.27 0.32 0.31 0.26 0.27 0.31 0.30 0.35 0.38 0.37 0.40
0.23 0.20 0.23 0.23 0.25 0.37 0.30 0.13 0.10 0.22 0.40 0.14 0.03 0.02 0.02 0.01 0.02 0.02 0.05 0.05 0.05 0.04 0.03 0.03 0.03 0.03 0.03 0.02 0.02 0.03 0.04 0.06 0.08 0.09 0.13 0.18 0.19 0.22 0.27 0.36 0.41 0.38 0.36 0.39
0.14 0.21 0.29 0.37 0.46 0.62 0.42 0.18 0.12 0.28 0.37 0.14 0.03 0.01 0.01 0.00 0.00 0.01 0.03 0.03 0.01 0.00 0.00 0.00 0.00 0.01 0.01 0.01 0.01 0.02 0.02 0.02 0.02 0.02 0.04 0.07 0.11 0.16 0.25 0.32 0.30 0.30 0.32 0.34
0.20 0.32 0.46 0.55 0.71 0.88 0.57 0.34 0.30 0.26 0.14 0.05 0.01 0.00 0.00 0.00 0.00 0.01 0.02 0.02 0.01 0.00 0.00 0.00 0.00 0.00 0.00 0.00 0.00 0.00 0.00 0.00 0.00 0.00 0.01 0.02 0.04 0.07 0.12 0.19 0.22 0.24 0.28 0.28
0.21 0.44 0.61 0.60 0.62 0.57 0.41 0.30 0.20 0.15 0.09 0.02 0.00 0.00 0.00 0.00 0.00 0.00 0.01 0.01 0.01 0.00 0.00 0.00 0.00 0.00 0.00 0.00 0.00 0.00 0.00 0.00 0.00 0.00 0.00 0.00 0.01 0.02 0.05 0.11 0.16 0.20 0.26 0.28
0.06 0.12 0.16 0.18 0.21 0.19 0.16 0.11 0.07 0.06 0.05 0.01 0.00 0.00 0.00 0.00 0.00 0.00 0.00 0.01 0.01 0.00 0.00 0.00 0.00 0.00 0.00 0.00 0.00 0.00 0.00 0.00 0.00 0.00 0.00 0.00 0.00 0.01 0.02 0.05 0.12 0.21 0.24 0.22
0.02 0.02 0.02 0.04 0.05 0.06 0.07 0.05 0.03 0.03 0.02 0.01 0.00 0.00 0.00 0.00 0.00 0.00 0.00 0.01 0.01 0.01 0.00 0.00 0.00 0.00 0.00 0.00 0.00 0.00 0.00 0.00 0.00 0.00 0.00 0.00 0.00 0.00 0.01 0.02 0.06 0.12 0.15 0.14
0.01 0.01 0.02 0.01 0.01 0.02 0.04 0.02 0.01 0.02 0.01 0.00 0.00 0.00 0.00 0.00 0.00 0.00 0.00 0.00 0.01 0.01 0.00 0.00 0.00 0.00 0.00 0.00 0.00 0.00 0.00 0.00 0.00 0.00 0.00 0.00 0.00 0.00 0.00 0.01 0.02 0.05 0.05 0.07

GEFSCGP_prec_meanprecacc_030.txt.gz
Total_Precipitation_Accumulation
0.04 0.11 0.27 0.32 0.33 0.24 0.15 0.10 0.08 0.09 0.11 0.09 0.09 0.10 0.10 0.10 0.09 0.08 0.08 0.07 0.06 0.05 0.05 0.04 0.03 0.02 0.00 0.00 0.01 0.04 0.07 0.14 0.23 0.39 0.65 0.97 1.10 1.11 1.10 1.15 1.00 0.77 0.53 0.49
0.03 0.05 0.08 0.07 0.07 0.08 0.08 0.08 0.07 0.06 0.08 0.06 0.05 0.04 0.04 0.04 0.04 0.05 0.05 0.06 0.05 0.06 0.05 0.04 0.03 0.03 0.01 0.01 0.01 0.05 0.06 0.11 0.20 0.38 0.59 0.86 1.01 0.95 0.90 0.95 0.95 0.85 0.69 0.64
0.02 0.03 0.01 0.01 0.02 0.04 0.07 0.10 0.10 0.07 0.05 0.04 0.03 0.02 0.01 0.01 0.01 0.01 0.02 0.03 0.03 0.04 0.04 0.03 0.02 0.02 0.02 0.02 0.03 0.06 0.09 0.15 0.27 0.45 0.58 0.60 0.67 0.66 0.71 0.75 0.80 0.85 0.81 0.74
0.00 0.01 0.00 0.01 0.01 0.02 0.06 0.06 0.05 0.04 0.04 0.04 0.03 0.03 0.01 0.00 0.00 0.00 0.01 0.01 0.02 0.03 0.02 0.01 0.01 0.02 0.02 0.03 0.04 0.06 0.09 0.16 0.28 0.41 0.43 0.39 0.43 0.47 0.46 0.52 0.61 0.68 0.73 0.76
0.00 0.00 0.00 0.00 0.01 0.02 0.03 0.03 0.03 0.04 0.04 0.04 0.03 0.04 0.01 0.00 0.00 0.00 0.01 0.01 0.02 0.02 0.01 0.01 0.02 0.03 0.04 0.04 0.05 0.09 0.14 0.20 0.28 0.30 0.30 0.28 0.23 0.21 0.23 0.30 0.44 0.52 0.64 0.73
0.00 0.00 0.00 0.00 0.00 0.01 0.01 0.02 0.04 0.05 0.06 0.05 0.03 0.05 0.04 0.02 0.01 0.01 0.02 0.02 0.02 0.03 0.03 0.04 0.06 0.08 0.08 0.10 0.12 0.14 0.20 0.26 0.29 0.27 0.21 0.16 0.13 0.11 0.14 0.21 0.33 0.46 0.57 0.73
0.00 0.00 0.00 0.00 0.00 0.00 0.01 0.04 0.10 0.12 0.14 0.11 0.05 0.07 0.07 0.04 0.02 0.01 0.02 0.02 0.04 0.07 0.12 0.17 0.19 0.21 0.24 0.26 0.24 0.24 0.24 0.23 0.20 0.15 0.10 0.07 0.05 0.04 0.06 0.12 0.22 0.39 0.48 0.65
0.00 0.00 0.00 0.00 0.00 0.00 0.01 0.03 0.10 0.13 0.12 0.12 0.09 0.12 0.10 0.06 0.04 0.04 0.04 0.05 0.09 0.17 0.25 0.34 0.41 0.45 0.45 0.40 0.34 0.31 0.27 0.21 0.15 0.09 0.06 0.05 0.03 0.03 0.04 0.06 0.10 0.28 0.44 0.54
0.00 0.00 0.00 0.00 0.00 0.00 0.01 0.03 0.05 0.11 0.09 0.09 0.08 0.14 0.13 0.09 0.08 0.07 0.08 0.10 0.18 0.33 0.45 0.52 0.57 0.57 0.50 0.40 0.32 0.27 0.23 0.17 0.13 0.08 0.05 0.03 0.02 0.02 0.04 0.03 0.04 0.10 0.23 0.30
0.01 0.00 0.00 0.00 0.00 0.01 0.03 0.06 0.11 0.20 0.26 0.21 0.17 0.23 0.24 0.22 0.20 0.18 0.17 0.21 0.31 0.50 0.65 0.77 0.80 0.71 0.61 0.51 0.42 0.29 0.18 0.15 0.11 0.07 0.05 0.03 0.02 0.02 0.02 0.03 0.02 0.03 0.07 0.11
0.03 0.03 0.01 0.01 0.02 0.05 0.09 0.15 0.21 0.31 0.36 0.41 0.43 0.48 0.38 0.31 0.31 0.37 0.44 0.48 0.57 0.70 0.84 0.94 0.92 0.76 0.55 0.41 0.35 0.27 0.17 0.11 0.08 0.06 0.05 0.03 0.02 0.02 0.02 0.02 0.01 0.01 0.03 0.06
0.05 0.11 0.07 0.03 0.07 0.10 0.21 0.34 0.45 0.64 0.63 0.50 0.56 0.65 0.47 0.31 0.32 0.34 0.36 0.42 0.50 0.55 0.57 0.61 0.56 0.47 0.38 0.30 0.24 0.20 0.15 0.11 0.10 0.10 0.09 0.07 0.04 0.03 0.02 0.02 0.02 0.02 0.03 0.04
0.12 0.22 0.21 0.15 0.20 0.28 0.35 0.41 0.48 0.52 0.62 0.60 0.61 0.68 0.48 0.30 0.26 0.26 0.28 0.27 0.24 0.24 0.25 0.26 0.24 0.20 0.19 0.18 0.17 0.17 0.17 0.20 0.23 0.23 0.22 0.18 0.11 0.06 0.03 0.03 0.04 0.04 0.04 0.04
0.18 0.25 0.30 0.33 0.38 0.45 0.49 0.42 0.37 0.43 0.58 0.57 0.54 0.50 0.35 0.25 0.20 0.18 0.21 0.21 0.15 0.13 0.13 0.13 0.13 0.12 0.10 0.10 0.11 0.14 0.20 0.27 0.38 0.44 0.38 0.26 0.16 0.09 0.06 0.05 0.05 0.06 0.06 0.06
0.12 0.13 0.15 0.16 0.15 0.23 0.41 0.53 0.47 0.47 0.48 0.59 0.44 0.25 0.20 0.17 0.17 0.16 0.20 0.21 0.14 0.12 0.11 0.11 0.10 0.10 0.09 0.08 0.10 0.13 0.20 0.31 0.47 0.57 0.46 0.31 0.19 0.14 0.12 0.11 0.10 0.10 0.11 0.10
0.04 0.04 0.03 0.04 0.06 0.15 0.37 0.47 0.49 0.47 0.38 0.30 0.20 0.17 0.11 0.10 0.14 0.14 0.15 0.14 0.12 0.12 0.13 0.13 0.12 0.11 0.12 0.11 0.11 0.14 0.21 0.35 0.53 0.61 0.51 0.33 0.22 0.18 0.19 0.20 0.17 0.16 0.16 0.15
0.01 0.03 0.05 0.05 0.06 0.14 0.37 0.41 0.45 0.33 0.17 0.10 0.11 0.12 0.06 0.07 0.11 0.12 0.16 0.19 0.16 0.16 0.17 0.17 0.16 0.15 0.14 0.14 0.17 0.24 0.28 0.40 0.49 0.51 0.47 0.36 0.29 0.28 0.26 0.25 0.25 0.25 0.26 0.25
0.03 0.08 0.11 0.09 0.12 0.33 0.58 0.45 0.38 0.30 0.14 0.07 0.07 0.05 0.05 0.08 0.13 0.14 0.18 0.23 0.20 0.18 0.18 0.19 0.19 0.19 0.20 0.20 0.22 0.31 0.36 0.37 0.42 0.49 0.48 0.41 0.36 0.32 0.31 0.30 0.30 0.37 0.36 0.33
0.11 0.13 0.16 0.16 0.19 0.37 0.46 0.30 0.26 0.33 0.31 0.11 0.05 0.05 0.06 0.09 0.11 0.10 0.12 0.17 0.16 0.13 0.12 0.13 0.13 0.12 0.12 0.11 0.11 0.13 0.17 0.22 0.26 0.30 0.34 0.33 0.28 0.29 0.32 0.31 0.36 0.39 0.38 0.41
0.23 0.20 0.23 0.23 0.25 0.37 0.30 0.13 0.11 0.22 0.41 0.16 0.05 0.04 0.03 0.04 0.04 0.04 0.06 0.06 0.05 0.04 0.03 0.03 0.03 0.03 0.03 0.02 0.03 0.04 0.05 0.06 0.08 0.10 0.14 0.18 0.19 0.22 0.27 0.36 0.41 0.38 0.36 0.40
0.14 0.21 0.29 0.37 0.46 0.62 0.42 0.18 0.12 0.29 0.38 0.15 0.04 0.01 0.01 0.01 0.01 0.01 0.03 0.03 0.01 0.00 0.00 0.00 0.00 0.01 0.01 0.01 0.01 0.02 0.02 0.02 0.02 0.02 0.04 0.07 0.11 0.16 0.25 0.32 0.30 0.30 0.32 0.34
0.20 0.32 0.46 0.55 0.71 0.88 0.57 0.34 0.30 0.26 0.14 0.06 0.01 0.00 0.00 0.00 0.00 0.01 0.02 0.02 0.01 0.00 0.00 0.00 0.00 0.00 0.00 0.00 0.00 0.00 0.00 0.00 0.00 0.00 0.01 0.02 0.04 0.07 0.12 0.19 0.22 0.24 0.28 0.28
0.21 0.44 0.61 0.60 0.62 0.57 0.41 0.30 0.20 0.15 0.09 0.02 0.00 0.00 0.00 0.00 0.00 0.00 0.01 0.01 0.01 0.00 0.00 0.00 0.00 0.00 0.00 0.00 0.00 0.00 0.00 0.00 0.00 0.00 0.00 0.00 0.01 0.02 0.05 0.11 0.16 0.20 0.26 0.28
0.06 0.12 0.16 0.18 0.21 0.19 0.16 0.11 0.07 0.06 0.05 0.01 0.00 0.00 0.00 0.00 0.00 0.00 0.00 0.01 0.01 0.00 0.00 0.00 0.00 0.00 0.00 0.00 0.00 0.00 0.00 0.00 0.00 0.00 0.00 0.00 0.00 0.01 0.02 0.05 0.12 0.21 0.24 0.22
0.02 0.02 0.02 0.04 0.05 0.06 0.07 0.05 0.03 0.03 0.02 0.01 0.00 0.00 0.00 0.00 0.00 0.00 0.00 0.01 0.01 0.01 0.00 0.00 0.00 0.00 0.00 0.00 0.00 0.00 0.00 0.00 0.00 0.00 0.00 0.00 0.00 0.00 0.01 0.02 0.06 0.12 0.15 0.14
0.01 0.01 0.02 0.01 0.01 0.02 0.04 0.02 0.01 0.02 0.01 0.00 0.00 0.00 0.00 0.00 0.00 0.00 0.00 0.00 0.01 0.01 0.00 0.00 0.00 0.00 0.00 0.00 0.00 0.00 0.00 0.00 0.00 0.00 0.00 0.00 0.00 0.00 0.00 0.01 0.02 0.05 0.05 0.07

GEFSCGP_prec_meanprecacc_036.txt.gz
Total_Precipitation_Accumulation
0.04 0.11 0.27 0.32 0.33 0.24 0.15 0.10 0.08 0.09 0.11 0.09 0.09 0.10 0.10 0.10 0.09 0.08 0.08 0.07 0.06 0.06 0.07 0.08 0.09 0.08 0.05 0.02 0.02 0.04 0.07 0.15 0.25 0.42 0.68 1.01 1.15 1.16 1.14 1.17 1.02 0.78 0.57 0.58
0.03 0.05 0.08 0.07 0.07 0.08 0.09 0.09 0.08 0.06 0.08 0.06 0.05 0.04 0.04 0.04 0.04 0.05 0.05 0.06 0.05 0.06 0.06 0.05 0.06 0.08 0.06 0.04 0.02 0.05 0.07 0.14 0.26 0.45 0.69 0.96 1.12 1.04 0.99 1.01 0.99 0.89 0.76 0.76
0.02 0.03 0.01 0.01 0.02 0.04 0.07 0.10 0.10 0.07 0.05 0.04 0.03 0.02 0.01 0.01 0.01 0.01 0.02 0.03 0.03 0.04 0.04 0.04 0.03 0.04 0.06 0.06 0.05 0.07 0.10 0.20 0.39 0.61 0.80 0.83 0.87 0.86 0.88 0.86 0.90 0.94 0.90 0.83
0.00 0.01 0.00 0.01 0.01 0.02 0.06 0.06 0.05 0.04 0.05 0.04 0.03 0.03 0.01 0.01 0.00 0.00 0.01 0.01 0.02 0.03 0.02 0.02 0.02 0.03 0.05 0.06 0.07 0.08 0.12 0.26 0.46 0.64 0.72 0.74 0.81 0.83 0.75 0.73 0.78 0.80 0.82 0.84
0.00 0.00 0.00 0.00 0.01 0.02 0.03 0.03 0.03 0.04 0.05 0.04 0.03 0.04 0.01 0.01 0.01 0.00 0.01 0.01 0.02 0.02 0.01 0.01 0.02 0.04 0.05 0.06 0.08 0.13 0.22 0.36 0.50 0.61 0.72 0.80 0.74 0.64 0.57 0.51 0.59 0.63 0.71 0.78
0.00 0.00 0.00 0.00 0.00 0.01 0.01 0.02 0.04 0.05 0.07 0.05 0.03 0.06 0.05 0.02 0.01 0.01 0.02 0.02 0.02 0.03 0.03 0.05 0.06 0.09 0.09 0.12 0.16 0.22 0.33 0.46 0.60 0.67 0.71 0.69 0.66 0.57 0.49 0.41 0.44 0.54 0.63 0.77
0.00 0.00 0.00 0.00 0.00 0.00 0.01 0.04 0.10 0.12 0.15 0.11 0.06 0.10 0.10 0.05 0.02 0.01 0.02 0.02 0.04 0.07 0.12 0.18 0.21 0.23 0.29 0.34 0.36 0.41 0.47 0.53 0.58 0.58 0.54 0.46 0.43 0.38 0.33 0.31 0.33 0.46 0.52 0.68
0.00 0.00 0.00 0.00 0.00 0.00 0.01 0.03 0.10 0.14 0.14 0.13 0.13 0.21 0.16 0.08 0.05 0.04 0.04 0.05 0.10 0.17 0.25 0.36 0.44 0.51 0.56 0.57 0.56 0.59 0.61 0.57 0.52 0.48 0.44 0.38 0.32 0.27 0.24 0.22 0.21 0.35 0.48 0.56
0.00 0.00 0.00 0.00 0.00 0.00 0.01 0.03 0.06 0.13 0.11 0.11 0.13 0.26 0.23 0.13 0.09 0.08 0.09 0.12 0.20 0.35 0.46 0.56 0.64 0.66 0.63 0.59 0.55 0.55 0.54 0.49 0.45 0.43 0.37 0.31 0.27 0.23 0.21 0.16 0.13 0.15 0.25 0.31
0.01 0.00 0.00 0.00 0.00 0.01 0.03 0.07 0.12 0.24 0.31 0.26 0.23 0.32 0.32 0.28 0.24 0.21 0.22 0.25 0.35 0.54 0.70 0.83 0.89 0.82 0.71 0.66 0.63 0.52 0.44 0.44 0.41 0.37 0.33 0.27 0.21 0.17 0.15 0.12 0.08 0.06 0.08 0.12
0.03 0.03 0.01 0.01 0.02 0.05 0.09 0.16 0.23 0.34 0.42 0.51 0.58 0.65 0.51 0.41 0.41 0.46 0.53 0.56 0.64 0.80 0.93 1.03 1.03 0.89 0.67 0.56 0.56 0.51 0.42 0.36 0.32 0.30 0.29 0.25 0.18 0.13 0.10 0.08 0.06 0.03 0.04 0.07
0.05 0.11 0.07 0.03 0.07 0.11 0.22 0.36 0.48 0.70 0.70 0.62 0.75 0.90 0.67 0.49 0.47 0.47 0.49 0.56 0.64 0.69 0.72 0.76 0.70 0.64 0.57 0.47 0.39 0.38 0.38 0.32 0.29 0.30 0.30 0.26 0.17 0.11 0.08 0.06 0.05 0.03 0.04 0.04
0.12 0.22 0.21 0.15 0.20 0.29 0.37 0.44 0.52 0.60 0.74 0.79 0.92 1.04 0.76 0.50 0.43 0.45 0.52 0.52 0.44 0.41 0.45 0.50 0.51 0.44 0.41 0.35 0.32 0.36 0.39 0.41 0.43 0.42 0.40 0.34 0.22 0.15 0.10 0.07 0.06 0.05 0.05 0.05
0.18 0.25 0.30 0.33 0.40 0.47 0.51 0.45 0.42 0.50 0.70 0.78 0.83 0.81 0.58 0.42 0.38 0.40 0.47 0.44 0.37 0.33 0.37 0.41 0.44 0.41 0.38 0.31 0.31 0.35 0.38 0.44 0.56 0.61 0.56 0.41 0.28 0.17 0.12 0.09 0.07 0.07 0.07 0.07
0.12 0.13 0.15 0.16 0.16 0.24 0.43 0.55 0.50 0.51 0.57 0.79 0.68 0.48 0.39 0.33 0.32 0.33 0.38 0.40 0.33 0.30 0.30 0.30 0.29 0.29 0.32 0.30 0.28 0.31 0.35 0.46 0.62 0.73 0.62 0.45 0.31 0.23 0.18 0.16 0.13 0.13 0.14 0.13
0.04 0.04 0.03 0.04 0.06 0.15 0.37 0.48 0.51 0.51 0.46 0.44 0.36 0.33 0.22 0.20 0.23 0.22 0.23 0.25 0.24 0.22 0.23 0.22 0.19 0.19 0.21 0.21 0.21 0.23 0.29 0.45 0.66 0.75 0.64 0.44 0.32 0.26 0.24 0.24 0.21 0.19 0.19 0.18
0.01 0.03 0.05 0.05 0.06 0.14 0.37 0.41 0.46 0.35 0.20 0.16 0.20 0.21 0.14 0.14 0.19 0.18 0.21 0.24 0.21 0.20 0.20 0.20 0.19 0.17 0.16 0.17 0.19 0.26 0.31 0.44 0.55 0.58 0.52 0.40 0.33 0.30 0.29 0.27 0.27 0.27 0.28 0.26
0.03 0.08 0.11 0.09 0.12 0.33 0.58 0.45 0.38 0.31 0.16 0.10 0.10 0.09 0.10 0.14 0.18 0.17 0.20 0.25 0.21 0.18 0.19 0.19 0.19 0.19 0.21 0.21 0.23 0.32 0.37 0.38 0.43 0.51 0.49 0.42 0.36 0.33 0.32 0.30 0.31 0.38 0.37 0.34
0.11 0.13 0.16 0.16 0.19 0.37 0.46 0.30 0.26 0.34 0.32 0.12 0.08 0.07 0.09 0.11 0.13 0.11 0.13 0.17 0.16 0.13 0.12 0.13 0.13 0.12 0.12 0.12 0.11 0.13 0.17 0.22 0.27 0.30 0.34 0.33 0.28 0.29 0.32 0.31 0.36 0.39 0.39 0.42
0.23 0.20 0.23 0.23 0.25 0.37 0.30 0.13 0.11 0.22 0.42 0.16 0.06 0.05 0.04 0.05 0.06 0.05 0.06 0.06 0.05 0.04 0.03 0.03 0.03 0.03 0.03 0.02 0.03 0.04 0.05 0.06 0.08 0.10 0.14 0.18 0.19 0.22 0.27 0.36 0.41 0.39 0.36 0.40
0.14 0.21 0.29 0.37 0.46 0.62 0.42 0.18 0.12 0.29 0.39 0.15 0.04 0.01 0.01 0.01 0.01 0.02 0.03 0.03 0.01 0.00 0.00 0.00 0.00 0.01 0.01 0.01 0.01 0.02 0.02 0.02 0.02 0.02 0.04 0.07 0.11 0.16 0.25 0.32 0.30 0.30 0.32 0.34
0.20 0.32 0.46 0.55 0.71 0.88 0.57 0.34 0.30 0.26 0.14 0.06 0.01 0.00 0.00 0.00 0.00 0.01 0.02 0.02 0.01 0.00 0.00 0.00 0.00 0.00 0.00 0.00 0.00 0.00 0.00 0.00 0.00 0.00 0.01 0.02 0.04 0.07 0.12 0.19 0.22 0.24 0.28 0.28
0.21 0.44 0.61 0.60 0.62 0.57 0.41 0.30 0.20 0.15 0.09 0.02 0.00 0.00 0.00 0.00 0.00 0.00 0.01 0.01 0.01 0.00 0.00 0.00 0.00 0.00 0.00 0.00 0.00 0.00 0.00 0.00 0.00 0.00 0.00 0.00 0.01 0.02 0.05 0.11 0.16 0.20 0.26 0.28
0.06 0.12 0.16 0.18 0.21 0.19 0.16 0.11 0.07 0.06 0.05 0.01 0.00 0.00 0.00 0.00 0.00 0.00 0.00 0.01 0.01 0.00 0.00 0.00 0.00 0.00 0.00 0.00 0.00 0.00 0.00 0.00 0.00 0.00 0.00 0.00 0.00 0.01 0.02 0.05 0.12 0.21 0.24 0.22
0.02 0.02 0.02 0.04 0.05 0.06 0.07 0.05 0.03 0.03 0.02 0.01 0.00 0.00 0.00 0.00 0.00 0.00 0.00 0.01 0.01 0.01 0.00 0.00 0.00 0.00 0.00 0.00 0.00 0.00 0.00 0.00 0.00 0.00 0.00 0.00 0.00 0.00 0.01 0.02 0.06 0.12 0.15 0.14
0.01 0.01 0.02 0.01 0.01 0.02 0.04 0.02 0.01 0.02 0.01 0.00 0.00 0.00 0.00 0.00 0.00 0.00 0.00 0.00 0.01 0.01 0.00 0.00 0.00 0.00 0.00 0.00 0.00 0.00 0.00 0.00 0.00 0.00 0.00 0.00 0.00 0.00 0.00 0.01 0.02 0.05 0.05 0.07

GEFSCGP_prec_meanprecacc_042.txt.gz
Total_Precipitation_Accumulation
0.04 0.11 0.27 0.32 0.33 0.24 0.15 0.10 0.08 0.09 0.11 0.10 0.09 0.10 0.10 0.10 0.09 0.08 0.08 0.07 0.07 0.07 0.09 0.10 0.10 0.10 0.07 0.04 0.03 0.06 0.08 0.15 0.26 0.44 0.71 1.05 1.20 1.23 1.20 1.21 1.04 0.81 0.60 0.62
0.03 0.05 0.08 0.07 0.07 0.08 0.09 0.09 0.08 0.06 0.08 0.06 0.05 0.04 0.04 0.04 0.04 0.05 0.05 0.06 0.05 0.07 0.07 0.06 0.06 0.08 0.07 0.04 0.03 0.07 0.09 0.15 0.28 0.49 0.73 1.01 1.19 1.14 1.11 1.13 1.08 0.96 0.83 0.83
0.02 0.03 0.01 0.01 0.02 0.04 0.07 0.10 0.10 0.07 0.05 0.04 0.03 0.02 0.01 0.01 0.01 0.02 0.02 0.03 0.04 0.05 0.04 0.04 0.03 0.05 0.06 0.06 0.05 0.08 0.12 0.23 0.43 0.68 0.92 1.02 1.14 1.13 1.11 1.07 1.09 1.07 0.99 0.92
0.00 0.01 0.00 0.01 0.01 0.02 0.06 0.06 0.05 0.05 0.05 0.04 0.04 0.04 0.01 0.02 0.04 0.04 0.05 0.05 0.05 0.04 0.02 0.02 0.02 0.03 0.05 0.06 0.07 0.09 0.14 0.30 0.56 0.80 0.93 1.04 1.21 1.22 1.05 0.99 0.99 0.98 0.97 0.98
0.00 0.00 0.00 0.00 0.01 0.02 0.03 0.03 0.03 0.04 0.05 0.04 0.03 0.04 0.03 0.04 0.09 0.14 0.13 0.11 0.08 0.04 0.01 0.01 0.02 0.04 0.05 0.06 0.08 0.14 0.26 0.42 0.63 0.78 0.95 1.14 1.23 1.15 1.02 0.89 0.91 0.90 0.94 0.97
0.00 0.00 0.00 0.00 0.00 0.01 0.01 0.02 0.04 0.05 0.07 0.05 0.03 0.06 0.10 0.12 0.12 0.12 0.11 0.09 0.06 0.04 0.04 0.05 0.07 0.09 0.10 0.12 0.17 0.24 0.37 0.52 0.69 0.83 0.96 1.02 1.14 1.15 1.10 0.96 0.89 0.89 0.91 1.01
0.00 0.00 0.00 0.00 0.00 0.00 0.01 0.04 0.10 0.13 0.15 0.12 0.07 0.14 0.23 0.16 0.10 0.08 0.07 0.06 0.06 0.08 0.13 0.19 0.22 0.25 0.31 0.35 0.37 0.42 0.50 0.61 0.71 0.75 0.78 0.79 0.85 0.89 0.87 0.84 0.79 0.84 0.85 0.95
0.00 0.00 0.00 0.00 0.00 0.00 0.01 0.03 0.10 0.14 0.14 0.15 0.16 0.31 0.33 0.21 0.15 0.12 0.09 0.09 0.12 0.20 0.28 0.38 0.47 0.54 0.59 0.60 0.58 0.62 0.67 0.65 0.63 0.62 0.63 0.65 0.64 0.65 0.64 0.60 0.57 0.66 0.79 0.81
0.00 0.00 0.00 0.00 0.00 0.00 0.01 0.03 0.06 0.13 0.12 0.12 0.18 0.39 0.40 0.28 0.24 0.19 0.15 0.16 0.23 0.39 0.51 0.61 0.69 0.72 0.69 0.63 0.60 0.60 0.61 0.58 0.57 0.56 0.53 0.51 0.49 0.47 0.48 0.44 0.43 0.42 0.46 0.46
0.01 0.00 0.00 0.00 0.00 0.01 0.03 0.07 0.13 0.26 0.33 0.29 0.30 0.45 0.48 0.41 0.34 0.29 0.27 0.30 0.42 0.64 0.78 0.91 0.96 0.89 0.78 0.71 0.70 0.59 0.52 0.51 0.49 0.46 0.44 0.41 0.37 0.33 0.32 0.30 0.29 0.24 0.22 0.21
0.03 0.03 0.01 0.01 0.02 0.05 0.10 0.16 0.24 0.37 0.44 0.56 0.68 0.80 0.64 0.54 0.53 0.58 0.62 0.66 0.79 0.99 1.11 1.17 1.17 1.04 0.79 0.66 0.67 0.61 0.51 0.44 0.38 0.36 0.36 0.35 0.30 0.25 0.23 0.21 0.19 0.15 0.13 0.14
0.05 0.11 0.07 0.03 0.07 0.11 0.22 0.36 0.49 0.73 0.73 0.66 0.85 1.05 0.81 0.64 0.64 0.66 0.69 0.77 0.91 0.99 1.02 1.02 0.95 0.89 0.77 0.65 0.54 0.51 0.52 0.44 0.38 0.39 0.40 0.37 0.28 0.23 0.21 0.20 0.18 0.13 0.13 0.11
0.12 0.22 0.21 0.15 0.21 0.29 0.37 0.45 0.53 0.63 0.77 0.84 1.03 1.20 0.89 0.66 0.61 0.67 0.78 0.80 0.77 0.72 0.78 0.82 0.83 0.75 0.70 0.60 0.51 0.57 0.62 0.60 0.58 0.55 0.56 0.49 0.36 0.30 0.27 0.23 0.19 0.14 0.13 0.12
0.18 0.25 0.30 0.34 0.40 0.47 0.51 0.45 0.43 0.53 0.74 0.83 0.92 0.94 0.72 0.58 0.55 0.57 0.66 0.65 0.61 0.63 0.68 0.72 0.74 0.69 0.67 0.61 0.57 0.61 0.64 0.68 0.79 0.85 0.78 0.61 0.49 0.40 0.33 0.27 0.21 0.18 0.16 0.14
0.12 0.13 0.15 0.16 0.16 0.24 0.43 0.56 0.51 0.52 0.60 0.83 0.75 0.59 0.52 0.48 0.49 0.49 0.51 0.51 0.47 0.49 0.50 0.50 0.49 0.49 0.53 0.51 0.48 0.49 0.52 0.64 0.81 0.89 0.78 0.61 0.47 0.37 0.30 0.30 0.25 0.24 0.23 0.19
0.04 0.04 0.03 0.04 0.06 0.15 0.37 0.48 0.52 0.52 0.47 0.47 0.41 0.39 0.29 0.27 0.32 0.32 0.30 0.31 0.30 0.30 0.31 0.29 0.27 0.26 0.29 0.28 0.29 0.31 0.38 0.55 0.78 0.86 0.72 0.52 0.39 0.33 0.30 0.31 0.29 0.27 0.25 0.22
0.01 0.03 0.05 0.05 0.06 0.14 0.37 0.41 0.46 0.35 0.20 0.17 0.22 0.24 0.17 0.17 0.25 0.24 0.26 0.28 0.24 0.22 0.23 0.23 0.22 0.20 0.19 0.19 0.21 0.28 0.33 0.47 0.57 0.60 0.55 0.43 0.34 0.32 0.31 0.29 0.29 0.30 0.31 0.30
0.03 0.08 0.11 0.09 0.12 0.33 0.58 0.45 0.38 0.31 0.16 0.10 0.10 0.11 0.12 0.16 0.20 0.18 0.22 0.27 0.23 0.20 0.20 0.21 0.21 0.20 0.21 0.22 0.23 0.32 0.37 0.38 0.44 0.51 0.50 0.42 0.37 0.33 0.32 0.31 0.32 0.39 0.39 0.36
0.11 0.13 0.16 0.16 0.19 0.37 0.46 0.30 0.26 0.34 0.33 0.12 0.08 0.08 0.10 0.11 0.14 0.12 0.13 0.17 0.16 0.13 0.12 0.13 0.13 0.12 0.12 0.12 0.11 0.13 0.17 0.22 0.27 0.30 0.34 0.33 0.28 0.29 0.32 0.32 0.37 0.40 0.40 0.42
0.23 0.20 0.23 0.23 0.25 0.37 0.30 0.13 0.11 0.22 0.43 0.17 0.06 0.05 0.04 0.05 0.08 0.05 0.06 0.06 0.05 0.04 0.03 0.03 0.03 0.03 0.03 0.02 0.03 0.04 0.05 0.06 0.08 0.10 0.14 0.18 0.19 0.22 0.28 0.36 0.42 0.39 0.37 0.41
0.14 0.21 0.29 0.37 0.46 0.62 0.42 0.18 0.12 0.29 0.40 0.15 0.04 0.01 0.01 0.01 0.02 0.02 0.03 0.03 0.01 0.00 0.00 0.00 0.00 0.01 0.01 0.01 0.01 0.02 0.02 0.02 0.02 0.02 0.04 0.07 0.11 0.16 0.25 0.32 0.31 0.30 0.32 0.35
0.20 0.32 0.46 0.55 0.71 0.88 0.57 0.34 0.30 0.27 0.14 0.06 0.01 0.00 0.00 0.00 0.00 0.01 0.02 0.02 0.01 0.00 0.00 0.00 0.00 0.00 0.00 0.00 0.00 0.00 0.00 0.00 0.00 0.00 0.01 0.02 0.04 0.07 0.12 0.19 0.22 0.24 0.28 0.29
0.21 0.44 0.61 0.60 0.62 0.57 0.41 0.30 0.20 0.15 0.09 0.02 0.00 0.00 0.00 0.00 0.00 0.00 0.01 0.01 0.01 0.00 0.00 0.00 0.00 0.00 0.00 0.00 0.00 0.00 0.00 0.00 0.00 0.00 0.00 0.00 0.01 0.02 0.05 0.12 0.16 0.20 0.26 0.28
0.06 0.12 0.16 0.18 0.21 0.19 0.16 0.11 0.07 0.06 0.05 0.01 0.00 0.00 0.00 0.00 0.00 0.00 0.00 0.01 0.01 0.00 0.00 0.00 0.00 0.00 0.00 0.00 0.00 0.00 0.00 0.00 0.00 0.00 0.00 0.00 0.01 0.01 0.03 0.05 0.12 0.21 0.24 0.22
0.02 0.02 0.02 0.04 0.05 0.06 0.07 0.05 0.03 0.03 0.02 0.01 0.00 0.00 0.00 0.00 0.00 0.00 0.00 0.01 0.01 0.01 0.00 0.00 0.00 0.00 0.00 0.00 0.00 0.00 0.00 0.00 0.00 0.00 0.00 0.00 0.00 0.01 0.02 0.02 0.06 0.13 0.15 0.14
0.01 0.01 0.02 0.01 0.01 0.02 0.04 0.02 0.01 0.02 0.01 0.00 0.00 0.00 0.00 0.00 0.00 0.00 0.00 0.00 0.01 0.01 0.00 0.00 0.00 0.00 0.00 0.00 0.00 0.00 0.00 0.00 0.00 0.00 0.00 0.00 0.00 0.01 0.01 0.02 0.03 0.05 0.05 0.07

GEFSCGP_prec_meanprecacc_048.txt.gz
Total_Precipitation_Accumulation
0.04 0.11 0.27 0.32 0.33 0.24 0.15 0.10 0.08 0.09 0.11 0.10 0.10 0.11 0.12 0.12 0.11 0.11 0.10 0.10 0.10 0.11 0.14 0.16 0.17 0.19 0.18 0.17 0.19 0.25 0.28 0.35 0.42 0.59 0.86 1.21 1.36 1.35 1.30 1.30 1.12 0.88 0.66 0.68
0.03 0.05 0.08 0.07 0.07 0.08 0.09 0.09 0.08 0.06 0.08 0.06 0.05 0.05 0.05 0.05 0.06 0.07 0.07 0.08 0.07 0.09 0.09 0.09 0.10 0.13 0.12 0.12 0.13 0.21 0.26 0.33 0.45 0.66 0.94 1.25 1.47 1.42 1.35 1.31 1.24 1.10 0.95 0.92
0.02 0.03 0.01 0.01 0.02 0.04 0.07 0.10 0.10 0.07 0.05 0.05 0.04 0.03 0.02 0.03 0.04 0.04 0.05 0.06 0.07 0.08 0.09 0.08 0.07 0.08 0.09 0.10 0.10 0.15 0.20 0.34 0.58 0.88 1.17 1.32 1.52 1.57 1.56 1.45 1.40 1.32 1.19 1.07
0.00 0.01 0.00 0.01 0.01 0.02 0.06 0.06 0.05 0.05 0.05 0.04 0.04 0.04 0.02 0.04 0.08 0.10 0.11 0.12 0.14 0.15 0.12 0.10 0.07 0.05 0.06 0.06 0.08 0.11 0.17 0.36 0.67 0.98 1.21 1.43 1.72 1.79 1.65 1.56 1.50 1.41 1.31 1.22
0.00 0.00 0.00 0.00 0.01 0.02 0.03 0.03 0.03 0.04 0.05 0.04 0.03 0.04 0.04 0.07 0.14 0.19 0.21 0.22 0.22 0.19 0.13 0.09 0.08 0.07 0.07 0.07 0.08 0.14 0.27 0.45 0.68 0.88 1.12 1.44 1.65 1.73 1.73 1.58 1.53 1.46 1.41 1.35
0.00 0.00 0.00 0.00 0.00 0.01 0.01 0.02 0.04 0.05 0.07 0.05 0.03 0.07 0.12 0.16 0.17 0.18 0.20 0.21 0.21 0.18 0.14 0.12 0.12 0.12 0.11 0.13 0.17 0.24 0.38 0.53 0.71 0.88 1.06 1.21 1.42 1.55 1.63 1.60 1.52 1.46 1.40 1.41
0.00 0.00 0.00 0.00 0.00 0.00 0.01 0.04 0.10 0.13 0.15 0.12 0.07 0.16 0.28 0.22 0.17 0.17 0.18 0.20 0.21 0.21 0.22 0.26 0.26 0.28 0.33 0.36 0.37 0.43 0.51 0.62 0.72 0.78 0.85 0.91 1.03 1.15 1.18 1.23 1.27 1.34 1.29 1.30
0.00 0.00 0.00 0.00 0.00 0.00 0.01 0.03 0.10 0.14 0.15 0.15 0.17 0.36 0.40 0.27 0.21 0.21 0.21 0.23 0.26 0.33 0.37 0.46 0.52 0.58 0.62 0.61 0.60 0.64 0.68 0.66 0.64 0.64 0.66 0.70 0.73 0.80 0.83 0.83 0.84 0.95 1.08 1.09
0.00 0.00 0.00 0.00 0.00 0.00 0.01 0.03 0.06 0.13 0.12 0.13 0.20 0.42 0.44 0.31 0.30 0.30 0.30 0.31 0.38 0.54 0.62 0.70 0.78 0.79 0.73 0.67 0.64 0.63 0.64 0.61 0.59 0.58 0.55 0.53 0.52 0.52 0.55 0.54 0.57 0.59 0.66 0.67
0.01 0.00 0.00 0.00 0.00 0.01 0.03 0.07 0.13 0.26 0.34 0.30 0.31 0.47 0.51 0.43 0.38 0.35 0.39 0.46 0.59 0.82 0.94 1.06 1.11 1.00 0.86 0.80 0.80 0.68 0.58 0.56 0.55 0.51 0.47 0.43 0.39 0.37 0.38 0.38 0.40 0.38 0.40 0.39
0.03 0.03 0.01 0.01 0.02 0.05 0.10 0.16 0.24 0.37 0.44 0.57 0.70 0.84 0.67 0.57 0.57 0.64 0.72 0.79 0.96 1.20 1.33 1.41 1.38 1.22 0.95 0.80 0.80 0.75 0.61 0.51 0.44 0.41 0.40 0.39 0.34 0.30 0.30 0.29 0.29 0.24 0.24 0.28
0.05 0.11 0.07 0.03 0.07 0.11 0.22 0.37 0.50 0.74 0.74 0.67 0.87 1.08 0.83 0.68 0.70 0.73 0.78 0.89 1.07 1.17 1.22 1.24 1.17 1.12 0.97 0.87 0.76 0.71 0.66 0.52 0.44 0.45 0.44 0.41 0.32 0.28 0.29 0.27 0.24 0.20 0.20 0.21
0.12 0.22 0.21 0.15 0.21 0.29 0.37 0.45 0.54 0.63 0.78 0.85 1.04 1.23 0.92 0.70 0.67 0.74 0.85 0.89 0.88 0.85 0.92 1.00 1.03 0.94 0.88 0.79 0.71 0.74 0.76 0.69 0.65 0.63 0.62 0.55 0.42 0.37 0.35 0.30 0.28 0.24 0.22 0.23
0.18 0.25 0.30 0.34 0.40 0.47 0.51 0.46 0.43 0.54 0.75 0.83 0.94 0.97 0.74 0.62 0.61 0.63 0.70 0.70 0.67 0.71 0.76 0.82 0.87 0.82 0.81 0.74 0.71 0.75 0.76 0.81 0.92 0.96 0.87 0.70 0.58 0.51 0.43 0.36 0.32 0.30 0.31 0.31
0.12 0.13 0.15 0.16 0.16 0.24 0.43 0.56 0.51 0.53 0.60 0.84 0.76 0.60 0.54 0.50 0.53 0.54 0.55 0.55 0.50 0.54 0.55 0.54 0.53 0.54 0.59 0.59 0.57 0.59 0.62 0.73 0.90 0.98 0.87 0.72 0.58 0.47 0.40 0.39 0.35 0.35 0.37 0.37
0.04 0.04 0.03 0.04 0.06 0.15 0.37 0.49 0.52 0.52 0.48 0.47 0.42 0.40 0.30 0.29 0.34 0.33 0.32 0.33 0.32 0.32 0.32 0.30 0.28 0.27 0.31 0.31 0.34 0.37 0.43 0.58 0.81 0.89 0.76 0.58 0.47 0.42 0.38 0.38 0.35 0.33 0.32 0.32
0.01 0.03 0.05 0.05 0.06 0.14 0.38 0.42 0.46 0.35 0.20 0.17 0.23 0.24 0.17 0.18 0.26 0.26 0.27 0.29 0.25 0.23 0.23 0.23 0.22 0.20 0.20 0.19 0.22 0.30 0.35 0.49 0.59 0.61 0.56 0.44 0.36 0.34 0.33 0.32 0.32 0.34 0.35 0.33
0.03 0.08 0.11 0.09 0.12 0.33 0.59 0.46 0.39 0.31 0.16 0.10 0.10 0.11 0.12 0.16 0.20 0.19 0.22 0.27 0.24 0.20 0.21 0.21 0.21 0.20 0.21 0.22 0.23 0.32 0.37 0.38 0.44 0.51 0.50 0.42 0.37 0.33 0.33 0.31 0.33 0.40 0.39 0.36
0.11 0.13 0.16 0.16 0.19 0.37 0.46 0.31 0.26 0.34 0.33 0.12 0.08 0.08 0.10 0.11 0.14 0.13 0.13 0.17 0.17 0.14 0.13 0.13 0.13 0.12 0.12 0.12 0.11 0.13 0.17 0.22 0.27 0.30 0.34 0.33 0.28 0.29 0.32 0.32 0.37 0.40 0.40 0.43
0.23 0.20 0.23 0.23 0.25 0.37 0.31 0.14 0.11 0.23 0.43 0.17 0.06 0.05 0.04 0.05 0.08 0.06 0.06 0.06 0.05 0.04 0.03 0.03 0.03 0.03 0.03 0.02 0.03 0.04 0.05 0.06 0.08 0.10 0.14 0.18 0.19 0.22 0.28 0.36 0.42 0.39 0.37 0.41
0.14 0.21 0.29 0.37 0.46 0.62 0.42 0.18 0.13 0.30 0.40 0.15 0.04 0.01 0.01 0.01 0.02 0.02 0.03 0.03 0.01 0.00 0.00 0.00 0.00 0.01 0.01 0.01 0.01 0.02 0.02 0.02 0.02 0.02 0.04 0.07 0.11 0.16 0.25 0.32 0.31 0.30 0.33 0.35
0.20 0.32 0.46 0.55 0.71 0.88 0.57 0.34 0.30 0.27 0.14 0.06 0.01 0.00 0.00 0.00 0.00 0.01 0.02 0.02 0.01 0.00 0.00 0.00 0.00 0.00 0.00 0.00 0.00 0.00 0.00 0.00 0.00 0.00 0.01 0.02 0.04 0.07 0.12 0.19 0.22 0.24 0.28 0.29
0.21 0.44 0.61 0.60 0.62 0.57 0.41 0.30 0.20 0.15 0.09 0.02 0.00 0.00 0.00 0.00 0.00 0.00 0.01 0.01 0.01 0.00 0.00 0.00 0.00 0.00 0.00 0.00 0.00 0.00 0.00 0.00 0.00 0.00 0.00 0.00 0.01 0.02 0.05 0.12 0.16 0.20 0.26 0.28
0.06 0.12 0.16 0.18 0.21 0.19 0.16 0.11 0.07 0.06 0.05 0.01 0.00 0.00 0.00 0.00 0.00 0.00 0.00 0.01 0.01 0.00 0.00 0.00 0.00 0.00 0.00 0.00 0.00 0.00 0.00 0.00 0.00 0.00 0.00 0.00 0.01 0.01 0.03 0.05 0.12 0.21 0.24 0.22
0.02 0.02 0.02 0.04 0.05 0.06 0.07 0.05 0.03 0.03 0.02 0.01 0.00 0.00 0.00 0.00 0.00 0.00 0.00 0.01 0.01 0.01 0.00 0.00 0.00 0.00 0.00 0.00 0.00 0.00 0.00 0.00 0.00 0.00 0.00 0.00 0.00 0.01 0.02 0.02 0.06 0.13 0.15 0.14
0.01 0.01 0.02 0.01 0.01 0.02 0.04 0.02 0.01 0.02 0.01 0.00 0.00 0.00 0.00 0.00 0.00 0.00 0.00 0.00 0.01 0.01 0.00 0.00 0.00 0.00 0.00 0.00 0.00 0.00 0.00 0.00 0.00 0.00 0.00 0.00 0.00 0.01 0.01 0.02 0.03 0.05 0.05 0.07

GEFSCGP_prec_meanprecacc_054.txt.gz
Total_Precipitation_Accumulation
0.04 0.11 0.27 0.32 0.33 0.24 0.15 0.10 0.08 0.09 0.11 0.10 0.11 0.12 0.12 0.13 0.11 0.12 0.12 0.11 0.12 0.13 0.17 0.20 0.22 0.24 0.24 0.23 0.26 0.33 0.39 0.48 0.58 0.78 1.08 1.47 1.62 1.68 1.66 1.66 1.50 1.21 0.93 0.87
0.03 0.05 0.08 0.07 0.07 0.08 0.09 0.09 0.08 0.06 0.08 0.06 0.06 0.05 0.05 0.06 0.07 0.08 0.08 0.09 0.09 0.11 0.12 0.11 0.13 0.15 0.14 0.14 0.16 0.25 0.31 0.41 0.54 0.79 1.09 1.43 1.75 1.78 1.73 1.69 1.61 1.44 1.29 1.22
0.02 0.03 0.01 0.01 0.02 0.04 0.07 0.10 0.10 0.07 0.05 0.05 0.04 0.03 0.03 0.03 0.05 0.05 0.06 0.07 0.08 0.10 0.11 0.09 0.08 0.09 0.10 0.10 0.11 0.16 0.22 0.37 0.64 0.95 1.27 1.45 1.73 1.83 1.84 1.74 1.72 1.66 1.56 1.43
0.00 0.01 0.00 0.01 0.01 0.02 0.06 0.06 0.05 0.05 0.05 0.04 0.04 0.04 0.03 0.04 0.08 0.10 0.12 0.13 0.15 0.17 0.14 0.11 0.08 0.06 0.06 0.07 0.08 0.11 0.17 0.36 0.69 1.01 1.26 1.49 1.83 1.91 1.80 1.80 1.80 1.76 1.69 1.59
0.00 0.00 0.00 0.00 0.01 0.02 0.03 0.03 0.03 0.04 0.05 0.04 0.03 0.04 0.04 0.07 0.14 0.20 0.22 0.23 0.23 0.20 0.14 0.11 0.09 0.07 0.07 0.07 0.09 0.15 0.27 0.45 0.69 0.90 1.14 1.47 1.71 1.81 1.86 1.76 1.76 1.76 1.76 1.71
0.00 0.00 0.00 0.00 0.00 0.01 0.01 0.02 0.04 0.05 0.07 0.05 0.03 0.07 0.13 0.17 0.18 0.19 0.21 0.22 0.22 0.19 0.15 0.14 0.13 0.14 0.12 0.14 0.18 0.26 0.39 0.54 0.72 0.89 1.07 1.23 1.45 1.60 1.71 1.71 1.67 1.65 1.65 1.71
0.00 0.00 0.00 0.00 0.00 0.00 0.01 0.04 0.10 0.13 0.15 0.12 0.07 0.16 0.28 0.23 0.18 0.18 0.19 0.21 0.22 0.23 0.24 0.28 0.28 0.31 0.35 0.38 0.40 0.46 0.54 0.64 0.74 0.80 0.86 0.93 1.06 1.19 1.24 1.32 1.38 1.49 1.49 1.55
0.00 0.00 0.00 0.00 0.00 0.00 0.01 0.03 0.10 0.14 0.15 0.15 0.17 0.36 0.40 0.27 0.22 0.22 0.22 0.25 0.28 0.35 0.41 0.50 0.57 0.64 0.69 0.67 0.66 0.70 0.75 0.71 0.67 0.66 0.68 0.72 0.75 0.83 0.87 0.89 0.91 1.04 1.21 1.24
0.00 0.00 0.00 0.00 0.00 0.00 0.01 0.03 0.06 0.13 0.12 0.13 0.20 0.42 0.44 0.32 0.31 0.31 0.31 0.33 0.41 0.59 0.69 0.78 0.86 0.87 0.84 0.78 0.74 0.75 0.75 0.68 0.63 0.62 0.58 0.55 0.53 0.54 0.58 0.59 0.62 0.65 0.74 0.77
0.01 0.00 0.00 0.00 0.00 0.01 0.03 0.07 0.13 0.26 0.34 0.30 0.31 0.48 0.51 0.43 0.38 0.36 0.41 0.48 0.64 0.90 1.04 1.17 1.23 1.12 1.01 0.97 0.98 0.86 0.75 0.66 0.62 0.58 0.52 0.46 0.42 0.40 0.42 0.43 0.46 0.44 0.45 0.46
0.03 0.03 0.01 0.01 0.02 0.05 0.10 0.16 0.24 0.37 0.45 0.57 0.70 0.84 0.68 0.58 0.58 0.65 0.74 0.82 1.00 1.26 1.42 1.51 1.51 1.39 1.17 1.00 0.98 0.92 0.77 0.64 0.52 0.50 0.47 0.44 0.38 0.35 0.34 0.33 0.32 0.27 0.29 0.34
0.05 0.11 0.07 0.03 0.07 0.11 0.22 0.37 0.50 0.74 0.74 0.67 0.87 1.09 0.84 0.69 0.71 0.74 0.80 0.91 1.09 1.21 1.29 1.33 1.28 1.27 1.14 1.01 0.91 0.88 0.78 0.61 0.52 0.52 0.51 0.47 0.37 0.33 0.33 0.31 0.28 0.24 0.24 0.26
0.12 0.22 0.21 0.15 0.21 0.29 0.37 0.45 0.54 0.63 0.78 0.85 1.04 1.23 0.92 0.70 0.68 0.75 0.87 0.91 0.89 0.87 0.97 1.06 1.12 1.03 0.98 0.88 0.80 0.87 0.90 0.78 0.74 0.71 0.71 0.63 0.47 0.41 0.40 0.37 0.34 0.30 0.28 0.29
0.18 0.25 0.30 0.34 0.40 0.47 0.51 0.46 0.43 0.54 0.75 0.83 0.94 0.97 0.75 0.62 0.61 0.64 0.72 0.72 0.70 0.73 0.78 0.84 0.91 0.87 0.87 0.80 0.77 0.83 0.87 0.91 0.98 1.02 0.94 0.77 0.63 0.56 0.49 0.43 0.37 0.34 0.36 0.35
0.12 0.13 0.15 0.16 0.16 0.24 0.43 0.56 0.51 0.53 0.60 0.84 0.76 0.60 0.54 0.51 0.53 0.54 0.56 0.56 0.52 0.56 0.56 0.55 0.54 0.56 0.61 0.61 0.59 0.63 0.67 0.79 0.96 1.02 0.89 0.75 0.62 0.50 0.44 0.43 0.39 0.39 0.41 0.40
0.04 0.04 0.03 0.04 0.06 0.15 0.37 0.49 0.52 0.52 0.48 0.47 0.42 0.40 0.30 0.29 0.34 0.33 0.32 0.33 0.32 0.32 0.32 0.31 0.28 0.28 0.32 0.32 0.34 0.38 0.45 0.60 0.83 0.91 0.78 0.61 0.51 0.46 0.42 0.41 0.37 0.35 0.34 0.34
0.01 0.03 0.05 0.05 0.06 0.14 0.38 0.42 0.46 0.35 0.20 0.17 0.23 0.24 0.17 0.18 0.26 0.26 0.27 0.29 0.25 0.23 0.23 0.23 0.22 0.20 0.20 0.20 0.22 0.30 0.36 0.49 0.59 0.61 0.56 0.45 0.38 0.36 0.35 0.34 0.33 0.34 0.35 0.34
0.03 0.08 0.11 0.09 0.12 0.33 0.59 0.46 0.39 0.31 0.16 0.10 0.10 0.11 0.12 0.16 0.20 0.19 0.22 0.27 0.24 0.20 0.21 0.21 0.21 0.20 0.21 0.22 0.23 0.32 0.37 0.38 0.44 0.51 0.50 0.43 0.37 0.34 0.33 0.31 0.33 0.40 0.40 0.37
0.11 0.13 0.16 0.16 0.19 0.37 0.46 0.31 0.26 0.34 0.33 0.12 0.08 0.08 0.10 0.11 0.14 0.13 0.13 0.17 0.17 0.14 0.13 0.13 0.13 0.12 0.12 0.12 0.11 0.13 0.17 0.22 0.27 0.30 0.34 0.33 0.28 0.29 0.32 0.32 0.37 0.40 0.40 0.43
0.23 0.20 0.23 0.23 0.25 0.37 0.31 0.14 0.11 0.23 0.43 0.17 0.06 0.05 0.04 0.05 0.08 0.06 0.06 0.06 0.05 0.04 0.03 0.03 0.03 0.03 0.03 0.02 0.03 0.04 0.05 0.06 0.08 0.10 0.14 0.18 0.19 0.22 0.28 0.36 0.42 0.39 0.37 0.41
0.14 0.21 0.29 0.37 0.46 0.62 0.42 0.18 0.13 0.30 0.40 0.15 0.04 0.01 0.01 0.01 0.02 0.02 0.03 0.03 0.01 0.00 0.00 0.00 0.00 0.01 0.01 0.01 0.01 0.02 0.02 0.02 0.02 0.02 0.04 0.07 0.11 0.16 0.25 0.32 0.31 0.30 0.33 0.35
0.20 0.32 0.46 0.55 0.71 0.88 0.57 0.34 0.30 0.27 0.14 0.06 0.01 0.00 0.00 0.00 0.00 0.01 0.02 0.02 0.01 0.00 0.00 0.00 0.00 0.00 0.00 0.00 0.00 0.00 0.00 0.00 0.00 0.00 0.01 0.02 0.04 0.07 0.12 0.19 0.22 0.24 0.28 0.29
0.21 0.44 0.61 0.60 0.62 0.57 0.41 0.30 0.20 0.15 0.09 0.02 0.00 0.00 0.00 0.00 0.00 0.00 0.01 0.01 0.01 0.00 0.00 0.00 0.00 0.00 0.00 0.00 0.00 0.00 0.00 0.00 0.00 0.00 0.00 0.00 0.01 0.02 0.05 0.12 0.16 0.20 0.26 0.28
0.06 0.12 0.16 0.18 0.21 0.19 0.16 0.11 0.07 0.06 0.05 0.01 0.00 0.00 0.00 0.00 0.00 0.00 0.00 0.01 0.01 0.00 0.00 0.00 0.00 0.00 0.00 0.00 0.00 0.00 0.00 0.00 0.00 0.00 0.00 0.00 0.01 0.01 0.03 0.05 0.12 0.21 0.24 0.22
0.02 0.02 0.02 0.04 0.05 0.06 0.07 0.05 0.03 0.03 0.02 0.01 0.00 0.00 0.00 0.00 0.00 0.00 0.00 0.01 0.01 0.01 0.00 0.00 0.00 0.00 0.00 0.00 0.00 0.00 0.00 0.00 0.00 0.00 0.00 0.00 0.00 0.01 0.02 0.02 0.06 0.13 0.15 0.14
0.01 0.01 0.02 0.01 0.01 0.02 0.04 0.02 0.01 0.02 0.01 0.00 0.00 0.00 0.00 0.00 0.00 0.00 0.00 0.00 0.01 0.01 0.00 0.00 0.00 0.00 0.00 0.00 0.00 0.00 0.00 0.00 0.00 0.00 0.00 0.00 0.00 0.01 0.01 0.02 0.03 0.05 0.05 0.07

GEFSCGP_prec_meanprecacc_060.txt.gz
Total_Precipitation_Accumulation
0.04 0.11 0.27 0.32 0.33 0.24 0.15 0.10 0.08 0.09 0.11 0.10 0.11 0.12 0.13 0.13 0.12 0.12 0.12 0.12 0.12 0.13 0.17 0.20 0.22 0.25 0.24 0.23 0.26 0.33 0.39 0.49 0.60 0.81 1.13 1.54 1.74 1.83 1.84 1.86 1.74 1.49 1.23 1.17
0.03 0.05 0.08 0.07 0.07 0.08 0.09 0.09 0.08 0.06 0.08 0.06 0.06 0.05 0.05 0.06 0.07 0.08 0.08 0.09 0.09 0.11 0.12 0.11 0.13 0.15 0.14 0.14 0.16 0.25 0.32 0.41 0.54 0.80 1.11 1.45 1.80 1.88 1.86 1.84 1.79 1.66 1.53 1.47
0.02 0.03 0.01 0.01 0.02 0.04 0.07 0.10 0.10 0.07 0.05 0.05 0.04 0.03 0.03 0.03 0.05 0.05 0.06 0.07 0.08 0.10 0.11 0.09 0.08 0.09 0.10 0.10 0.11 0.17 0.22 0.37 0.64 0.96 1.27 1.46 1.74 1.86 1.91 1.83 1.83 1.84 1.79 1.67
0.00 0.01 0.00 0.01 0.01 0.02 0.06 0.06 0.05 0.05 0.05 0.04 0.04 0.05 0.03 0.04 0.08 0.10 0.12 0.13 0.15 0.17 0.14 0.11 0.08 0.06 0.07 0.07 0.08 0.12 0.18 0.37 0.70 1.02 1.26 1.50 1.84 1.93 1.84 1.87 1.88 1.89 1.88 1.82
0.00 0.00 0.00 0.00 0.01 0.02 0.03 0.03 0.03 0.04 0.05 0.04 0.03 0.04 0.04 0.07 0.14 0.20 0.22 0.23 0.23 0.20 0.14 0.11 0.10 0.08 0.08 0.08 0.09 0.16 0.28 0.47 0.71 0.91 1.15 1.49 1.73 1.83 1.89 1.81 1.85 1.86 1.90 1.88
0.00 0.00 0.00 0.00 0.00 0.01 0.01 0.02 0.04 0.05 0.07 0.05 0.03 0.07 0.13 0.17 0.18 0.20 0.21 0.22 0.22 0.20 0.16 0.15 0.14 0.14 0.14 0.15 0.20 0.27 0.42 0.57 0.76 0.92 1.10 1.26 1.48 1.62 1.74 1.75 1.73 1.73 1.76 1.82
0.00 0.00 0.00 0.00 0.00 0.00 0.01 0.04 0.10 0.13 0.15 0.12 0.07 0.16 0.28 0.23 0.18 0.18 0.19 0.21 0.23 0.24 0.25 0.29 0.30 0.33 0.39 0.42 0.43 0.50 0.59 0.69 0.79 0.86 0.91 0.97 1.10 1.23 1.28 1.37 1.45 1.57 1.56 1.62
0.00 0.00 0.00 0.00 0.00 0.00 0.01 0.03 0.10 0.14 0.15 0.15 0.17 0.36 0.40 0.27 0.23 0.22 0.23 0.25 0.29 0.36 0.42 0.52 0.60 0.68 0.73 0.71 0.70 0.76 0.81 0.78 0.75 0.77 0.78 0.80 0.83 0.88 0.93 0.95 0.96 1.09 1.26 1.29
0.00 0.00 0.00 0.00 0.00 0.00 0.01 0.03 0.06 0.13 0.12 0.13 0.20 0.42 0.44 0.32 0.31 0.31 0.31 0.33 0.42 0.60 0.70 0.81 0.90 0.92 0.91 0.87 0.82 0.81 0.82 0.79 0.77 0.75 0.70 0.63 0.60 0.61 0.67 0.67 0.70 0.71 0.80 0.83
0.01 0.00 0.00 0.00 0.00 0.01 0.03 0.07 0.13 0.26 0.34 0.30 0.31 0.48 0.52 0.44 0.39 0.36 0.41 0.49 0.65 0.91 1.06 1.19 1.26 1.17 1.09 1.07 1.10 0.97 0.86 0.78 0.75 0.71 0.66 0.58 0.50 0.47 0.49 0.51 0.55 0.51 0.51 0.51
0.03 0.03 0.01 0.01 0.02 0.05 0.10 0.16 0.24 0.37 0.45 0.57 0.70 0.84 0.68 0.58 0.58 0.65 0.75 0.83 1.00 1.26 1.43 1.52 1.53 1.43 1.22 1.09 1.08 1.00 0.88 0.76 0.64 0.60 0.60 0.57 0.47 0.43 0.42 0.40 0.40 0.34 0.35 0.41
0.05 0.11 0.07 0.03 0.07 0.11 0.22 0.37 0.50 0.74 0.74 0.67 0.87 1.09 0.84 0.69 0.71 0.74 0.80 0.92 1.10 1.22 1.30 1.34 1.29 1.29 1.17 1.08 0.99 0.93 0.82 0.68 0.62 0.63 0.62 0.58 0.49 0.43 0.43 0.38 0.35 0.30 0.29 0.31
0.12 0.22 0.21 0.15 0.21 0.29 0.37 0.45 0.54 0.63 0.78 0.85 1.04 1.23 0.92 0.71 0.69 0.75 0.87 0.91 0.90 0.88 0.97 1.07 1.13 1.04 0.99 0.92 0.86 0.93 0.93 0.81 0.79 0.81 0.83 0.73 0.58 0.53 0.49 0.43 0.40 0.34 0.33 0.35
0.18 0.25 0.30 0.34 0.40 0.47 0.51 0.46 0.43 0.54 0.75 0.83 0.94 0.97 0.75 0.62 0.62 0.64 0.72 0.72 0.70 0.74 0.78 0.84 0.91 0.87 0.88 0.82 0.80 0.88 0.93 0.94 1.00 1.07 1.02 0.84 0.70 0.62 0.54 0.47 0.41 0.38 0.40 0.41
0.12 0.13 0.15 0.16 0.16 0.24 0.43 0.56 0.51 0.53 0.60 0.84 0.76 0.60 0.54 0.51 0.53 0.54 0.56 0.56 0.52 0.56 0.56 0.55 0.55 0.56 0.62 0.63 0.60 0.64 0.71 0.82 0.97 1.04 0.92 0.78 0.65 0.54 0.47 0.46 0.42 0.42 0.44 0.43
0.04 0.04 0.03 0.04 0.06 0.15 0.37 0.49 0.52 0.52 0.48 0.47 0.42 0.40 0.30 0.29 0.34 0.33 0.32 0.33 0.32 0.32 0.33 0.31 0.28 0.28 0.32 0.33 0.35 0.39 0.46 0.61 0.84 0.92 0.79 0.62 0.53 0.49 0.45 0.43 0.38 0.36 0.36 0.37
0.01 0.03 0.05 0.05 0.06 0.14 0.38 0.42 0.46 0.35 0.20 0.17 0.23 0.24 0.17 0.18 0.26 0.26 0.27 0.29 0.25 0.23 0.23 0.24 0.22 0.20 0.20 0.20 0.23 0.30 0.36 0.49 0.59 0.62 0.57 0.46 0.39 0.37 0.36 0.35 0.34 0.35 0.36 0.35
0.03 0.08 0.11 0.09 0.12 0.33 0.59 0.46 0.39 0.31 0.16 0.10 0.10 0.11 0.12 0.16 0.20 0.19 0.22 0.27 0.24 0.20 0.21 0.21 0.21 0.20 0.21 0.22 0.23 0.32 0.37 0.39 0.44 0.51 0.50 0.43 0.38 0.34 0.33 0.32 0.34 0.41 0.41 0.37
0.11 0.13 0.16 0.16 0.19 0.37 0.46 0.31 0.26 0.34 0.33 0.12 0.08 0.08 0.10 0.11 0.14 0.13 0.13 0.17 0.17 0.14 0.13 0.13 0.13 0.12 0.12 0.12 0.11 0.13 0.17 0.22 0.27 0.30 0.34 0.33 0.28 0.29 0.32 0.32 0.37 0.41 0.41 0.44
0.23 0.20 0.23 0.23 0.25 0.37 0.31 0.14 0.11 0.23 0.43 0.17 0.06 0.05 0.04 0.05 0.08 0.06 0.06 0.06 0.05 0.04 0.03 0.03 0.03 0.03 0.03 0.02 0.03 0.04 0.05 0.06 0.09 0.10 0.14 0.18 0.19 0.22 0.28 0.36 0.42 0.39 0.37 0.41
0.14 0.21 0.29 0.37 0.46 0.62 0.42 0.18 0.13 0.30 0.40 0.15 0.04 0.01 0.01 0.01 0.02 0.02 0.03 0.03 0.01 0.00 0.00 0.00 0.00 0.01 0.01 0.01 0.01 0.02 0.02 0.02 0.02 0.02 0.04 0.07 0.11 0.16 0.25 0.32 0.31 0.30 0.33 0.35
0.20 0.32 0.46 0.55 0.71 0.88 0.57 0.34 0.30 0.27 0.14 0.06 0.01 0.00 0.00 0.00 0.00 0.01 0.02 0.02 0.01 0.00 0.00 0.00 0.00 0.00 0.00 0.00 0.00 0.00 0.00 0.00 0.00 0.00 0.01 0.02 0.04 0.07 0.12 0.19 0.22 0.25 0.28 0.29
0.21 0.44 0.61 0.60 0.62 0.57 0.41 0.30 0.20 0.15 0.09 0.02 0.00 0.00 0.00 0.00 0.00 0.00 0.01 0.01 0.01 0.00 0.00 0.00 0.00 0.00 0.00 0.00 0.00 0.00 0.00 0.00 0.00 0.00 0.00 0.00 0.01 0.02 0.05 0.12 0.16 0.20 0.26 0.28
0.06 0.12 0.16 0.18 0.21 0.19 0.16 0.11 0.07 0.06 0.05 0.01 0.00 0.00 0.00 0.00 0.00 0.00 0.00 0.01 0.01 0.00 0.00 0.00 0.00 0.00 0.00 0.00 0.00 0.00 0.00 0.00 0.00 0.00 0.00 0.00 0.01 0.01 0.03 0.06 0.12 0.21 0.24 0.22
0.02 0.02 0.02 0.04 0.05 0.06 0.07 0.05 0.03 0.03 0.02 0.01 0.00 0.00 0.00 0.00 0.00 0.00 0.00 0.01 0.01 0.01 0.00 0.00 0.00 0.00 0.00 0.00 0.00 0.00 0.00 0.00 0.00 0.00 0.00 0.00 0.00 0.01 0.02 0.02 0.06 0.13 0.15 0.14
0.01 0.01 0.02 0.01 0.01 0.02 0.04 0.02 0.01 0.02 0.01 0.00 0.00 0.00 0.00 0.00 0.00 0.00 0.00 0.00 0.01 0.01 0.00 0.00 0.00 0.00 0.00 0.00 0.00 0.00 0.00 0.00 0.00 0.00 0.00 0.00 0.00 0.01 0.01 0.02 0.03 0.05 0.05 0.07

GEFSCGP_prec_meanprecacc_066.txt.gz
Total_Precipitation_Accumulation
0.04 0.11 0.27 0.32 0.33 0.24 0.15 0.10 0.09 0.10 0.11 0.10 0.11 0.12 0.13 0.13 0.12 0.12 0.12 0.12 0.12 0.13 0.17 0.20 0.22 0.25 0.24 0.23 0.27 0.33 0.40 0.49 0.60 0.82 1.14 1.57 1.77 1.88 1.90 1.91 1.81 1.60 1.36 1.30
0.03 0.05 0.08 0.07 0.07 0.08 0.09 0.09 0.08 0.06 0.08 0.06 0.06 0.06 0.05 0.06 0.07 0.08 0.08 0.09 0.09 0.11 0.12 0.11 0.13 0.15 0.14 0.14 0.16 0.25 0.32 0.41 0.55 0.81 1.12 1.47 1.82 1.90 1.91 1.90 1.85 1.72 1.60 1.57
0.02 0.03 0.01 0.01 0.02 0.04 0.07 0.10 0.10 0.07 0.05 0.05 0.04 0.04 0.03 0.04 0.05 0.06 0.06 0.07 0.08 0.10 0.11 0.09 0.08 0.09 0.10 0.11 0.12 0.17 0.23 0.37 0.65 0.98 1.30 1.48 1.77 1.89 1.95 1.88 1.88 1.91 1.85 1.75
0.00 0.01 0.00 0.01 0.01 0.02 0.06 0.06 0.05 0.05 0.05 0.04 0.04 0.05 0.04 0.06 0.10 0.12 0.13 0.13 0.15 0.17 0.14 0.11 0.09 0.07 0.08 0.09 0.10 0.13 0.19 0.38 0.72 1.06 1.31 1.55 1.89 1.98 1.88 1.93 1.96 1.98 1.97 1.93
0.00 0.00 0.00 0.00 0.01 0.02 0.03 0.03 0.03 0.04 0.05 0.04 0.03 0.05 0.05 0.08 0.15 0.21 0.23 0.23 0.23 0.20 0.15 0.12 0.10 0.09 0.09 0.10 0.12 0.18 0.31 0.50 0.75 0.95 1.21 1.55 1.79 1.89 1.95 1.90 1.94 1.95 1.99 1.98
0.00 0.00 0.00 0.00 0.00 0.01 0.01 0.02 0.04 0.05 0.07 0.06 0.03 0.07 0.13 0.17 0.19 0.21 0.22 0.23 0.23 0.20 0.16 0.16 0.15 0.15 0.15 0.17 0.23 0.31 0.45 0.61 0.81 0.97 1.16 1.33 1.56 1.70 1.84 1.88 1.83 1.83 1.86 1.93
0.00 0.00 0.00 0.00 0.00 0.00 0.01 0.04 0.10 0.13 0.16 0.12 0.07 0.16 0.28 0.23 0.18 0.19 0.20 0.21 0.23 0.24 0.26 0.30 0.31 0.34 0.41 0.44 0.46 0.54 0.63 0.74 0.84 0.93 1.00 1.05 1.21 1.35 1.39 1.48 1.58 1.70 1.71 1.75
0.00 0.00 0.00 0.00 0.00 0.00 0.01 0.03 0.10 0.15 0.15 0.15 0.17 0.36 0.41 0.27 0.23 0.22 0.23 0.25 0.29 0.37 0.43 0.53 0.61 0.69 0.76 0.75 0.73 0.79 0.84 0.82 0.80 0.84 0.89 0.91 0.96 1.01 1.05 1.08 1.11 1.25 1.42 1.44
0.00 0.00 0.00 0.00 0.00 0.00 0.01 0.03 0.06 0.13 0.12 0.13 0.20 0.42 0.44 0.32 0.31 0.31 0.32 0.33 0.42 0.61 0.71 0.81 0.91 0.92 0.93 0.90 0.85 0.85 0.87 0.84 0.81 0.80 0.79 0.75 0.71 0.74 0.82 0.84 0.88 0.93 1.02 1.02
0.01 0.00 0.00 0.00 0.00 0.01 0.03 0.07 0.13 0.26 0.34 0.30 0.31 0.48 0.52 0.44 0.39 0.37 0.41 0.49 0.65 0.91 1.06 1.19 1.27 1.17 1.10 1.09 1.13 1.00 0.91 0.84 0.80 0.78 0.78 0.72 0.65 0.65 0.65 0.66 0.72 0.70 0.69 0.68
0.03 0.03 0.01 0.01 0.02 0.05 0.10 0.16 0.24 0.37 0.45 0.57 0.70 0.85 0.68 0.58 0.58 0.65 0.75 0.83 1.00 1.26 1.43 1.52 1.53 1.43 1.23 1.10 1.09 1.03 0.92 0.81 0.70 0.68 0.71 0.69 0.62 0.60 0.58 0.55 0.54 0.48 0.49 0.54
0.05 0.11 0.07 0.03 0.07 0.11 0.22 0.37 0.50 0.74 0.74 0.67 0.87 1.09 0.84 0.69 0.71 0.74 0.80 0.92 1.10 1.22 1.30 1.34 1.30 1.29 1.18 1.08 0.99 0.95 0.84 0.70 0.64 0.67 0.68 0.68 0.57 0.50 0.52 0.49 0.47 0.42 0.41 0.43
0.12 0.22 0.21 0.15 0.21 0.29 0.37 0.45 0.54 0.63 0.78 0.85 1.04 1.23 0.92 0.71 0.69 0.75 0.87 0.91 0.90 0.88 0.98 1.07 1.13 1.04 1.00 0.92 0.87 0.94 0.94 0.83 0.81 0.84 0.87 0.79 0.64 0.58 0.55 0.50 0.47 0.42 0.41 0.44
0.18 0.25 0.30 0.34 0.40 0.47 0.51 0.46 0.43 0.54 0.75 0.83 0.94 0.97 0.75 0.62 0.62 0.64 0.72 0.72 0.70 0.74 0.78 0.84 0.92 0.88 0.89 0.83 0.80 0.89 0.93 0.95 1.02 1.10 1.05 0.88 0.74 0.66 0.58 0.52 0.46 0.42 0.45 0.47
0.12 0.13 0.15 0.16 0.16 0.24 0.43 0.56 0.51 0.53 0.60 0.84 0.76 0.60 0.54 0.51 0.53 0.54 0.56 0.56 0.52 0.56 0.56 0.55 0.55 0.56 0.63 0.63 0.60 0.64 0.71 0.82 0.98 1.05 0.94 0.79 0.67 0.56 0.50 0.51 0.46 0.45 0.48 0.48
0.04 0.04 0.03 0.04 0.06 0.15 0.37 0.49 0.52 0.52 0.48 0.47 0.42 0.40 0.30 0.29 0.34 0.33 0.32 0.33 0.32 0.32 0.33 0.31 0.28 0.28 0.33 0.33 0.35 0.39 0.47 0.62 0.84 0.93 0.80 0.63 0.56 0.52 0.47 0.45 0.40 0.39 0.39 0.40
0.01 0.03 0.05 0.05 0.06 0.14 0.38 0.42 0.46 0.35 0.20 0.17 0.23 0.24 0.17 0.18 0.26 0.26 0.27 0.29 0.25 0.23 0.23 0.24 0.22 0.20 0.20 0.20 0.23 0.30 0.36 0.50 0.60 0.62 0.57 0.46 0.41 0.39 0.38 0.36 0.36 0.37 0.38 0.38
0.03 0.08 0.11 0.09 0.12 0.33 0.59 0.46 0.39 0.31 0.16 0.10 0.10 0.11 0.12 0.16 0.20 0.19 0.22 0.27 0.24 0.20 0.21 0.21 0.21 0.20 0.21 0.22 0.23 0.32 0.37 0.39 0.44 0.52 0.50 0.43 0.38 0.35 0.34 0.33 0.35 0.42 0.42 0.40
0.11 0.13 0.16 0.16 0.19 0.37 0.46 0.31 0.26 0.34 0.33 0.12 0.08 0.08 0.10 0.11 0.14 0.13 0.13 0.17 0.17 0.14 0.13 0.13 0.13 0.12 0.12 0.12 0.11 0.13 0.17 0.22 0.27 0.30 0.35 0.33 0.29 0.30 0.33 0.33 0.38 0.42 0.42 0.45
0.23 0.20 0.23 0.23 0.25 0.37 0.31 0.14 0.11 0.23 0.43 0.17 0.06 0.05 0.04 0.05 0.08 0.06 0.06 0.06 0.05 0.04 0.03 0.03 0.03 0.03 0.03 0.02 0.03 0.04 0.05 0.06 0.09 0.10 0.14 0.18 0.19 0.22 0.28 0.37 0.43 0.40 0.38 0.42
0.14 0.21 0.29 0.37 0.46 0.62 0.42 0.18 0.13 0.30 0.40 0.15 0.04 0.01 0.01 0.01 0.02 0.02 0.03 0.03 0.01 0.00 0.00 0.00 0.00 0.01 0.01 0.01 0.01 0.02 0.02 0.02 0.02 0.02 0.04 0.07 0.11 0.17 0.25 0.32 0.31 0.31 0.34 0.37
0.20 0.32 0.46 0.55 0.71 0.88 0.57 0.34 0.30 0.27 0.14 0.06 0.01 0.00 0.00 0.00 0.00 0.01 0.02 0.02 0.01 0.00 0.00 0.00 0.00 0.00 0.00 0.00 0.00 0.00 0.00 0.00 0.00 0.00 0.01 0.02 0.04 0.07 0.12 0.19 0.23 0.25 0.29 0.30
0.21 0.44 0.61 0.60 0.62 0.57 0.41 0.30 0.20 0.15 0.09 0.02 0.00 0.00 0.00 0.00 0.00 0.00 0.01 0.01 0.01 0.00 0.00 0.00 0.00 0.00 0.00 0.00 0.00 0.00 0.00 0.00 0.00 0.00 0.00 0.00 0.01 0.02 0.06 0.12 0.17 0.21 0.27 0.29
0.06 0.12 0.16 0.18 0.21 0.19 0.16 0.11 0.07 0.06 0.05 0.01 0.00 0.00 0.00 0.00 0.00 0.00 0.00 0.01 0.01 0.00 0.00 0.00 0.00 0.00 0.00 0.00 0.00 0.00 0.00 0.00 0.00 0.00 0.00 0.00 0.01 0.01 0.03 0.06 0.13 0.21 0.24 0.23
0.02 0.02 0.02 0.04 0.05 0.06 0.07 0.05 0.03 0.03 0.02 0.01 0.00 0.00 0.00 0.00 0.00 0.00 0.00 0.01 0.01 0.01 0.00 0.00 0.00 0.00 0.00 0.00 0.00 0.00 0.00 0.00 0.00 0.00 0.00 0.00 0.00 0.01 0.02 0.02 0.06 0.13 0.15 0.14
0.01 0.01 0.02 0.01 0.01 0.02 0.04 0.02 0.01 0.02 0.01 0.00 0.00 0.00 0.00 0.00 0.00 0.00 0.00 0.00 0.01 0.01 0.00 0.00 0.00 0.00 0.00 0.00 0.00 0.00 0.00 0.00 0.00 0.00 0.00 0.00 0.00 0.01 0.01 0.02 0.03 0.05 0.05 0.07

GEFSCGP_prec_meanprecacc_072.txt.gz
Total_Precipitation_Accumulation
0.04 0.11 0.27 0.32 0.34 0.24 0.15 0.10 0.09 0.10 0.12 0.11 0.11 0.12 0.13 0.13 0.12 0.12 0.12 0.12 0.12 0.13 0.17 0.20 0.22 0.25 0.24 0.23 0.27 0.34 0.40 0.49 0.60 0.82 1.14 1.57 1.78 1.89 1.90 1.92 1.83 1.63 1.41 1.40
0.03 0.06 0.08 0.07 0.07 0.09 0.09 0.09 0.08 0.06 0.08 0.06 0.06 0.06 0.06 0.06 0.07 0.08 0.08 0.09 0.09 0.11 0.12 0.11 0.13 0.15 0.14 0.14 0.17 0.26 0.32 0.42 0.55 0.81 1.13 1.48 1.83 1.91 1.92 1.91 1.87 1.75 1.63 1.63
0.03 0.03 0.01 0.01 0.02 0.04 0.07 0.10 0.10 0.07 0.05 0.05 0.04 0.04 0.04 0.04 0.05 0.06 0.06 0.07 0.08 0.10 0.11 0.09 0.08 0.09 0.10 0.11 0.12 0.18 0.24 0.38 0.66 0.99 1.30 1.49 1.78 1.90 1.95 1.89 1.90 1.94 1.89 1.79
0.00 0.01 0.00 0.01 0.01 0.02 0.06 0.06 0.05 0.05 0.05 0.04 0.04 0.05 0.04 0.06 0.10 0.12 0.13 0.13 0.15 0.17 0.14 0.12 0.09 0.07 0.08 0.09 0.11 0.14 0.20 0.39 0.73 1.07 1.33 1.55 1.90 2.00 1.91 1.95 1.97 2.00 2.02 1.97
0.00 0.00 0.00 0.00 0.01 0.02 0.03 0.03 0.03 0.04 0.05 0.04 0.03 0.05 0.05 0.08 0.15 0.21 0.23 0.23 0.23 0.20 0.15 0.12 0.10 0.09 0.10 0.10 0.13 0.19 0.32 0.51 0.76 0.97 1.22 1.57 1.81 1.91 2.00 1.96 1.99 1.99 2.03 2.03
0.00 0.00 0.00 0.00 0.00 0.01 0.01 0.02 0.04 0.05 0.07 0.06 0.03 0.07 0.13 0.17 0.19 0.21 0.22 0.23 0.23 0.20 0.16 0.16 0.15 0.15 0.16 0.18 0.24 0.32 0.47 0.62 0.82 0.98 1.18 1.37 1.61 1.74 1.89 1.99 1.92 1.90 1.93 2.00
0.00 0.00 0.00 0.00 0.00 0.00 0.01 0.04 0.10 0.13 0.16 0.12 0.07 0.16 0.28 0.23 0.18 0.19 0.20 0.21 0.23 0.24 0.26 0.30 0.31 0.34 0.41 0.44 0.47 0.55 0.64 0.75 0.85 0.95 1.03 1.09 1.26 1.41 1.46 1.60 1.69 1.79 1.81 1.85
0.00 0.00 0.00 0.00 0.00 0.00 0.01 0.03 0.10 0.15 0.15 0.15 0.17 0.36 0.41 0.27 0.23 0.22 0.23 0.25 0.29 0.37 0.43 0.53 0.61 0.69 0.76 0.75 0.74 0.80 0.85 0.83 0.81 0.86 0.92 0.94 1.00 1.07 1.13 1.16 1.20 1.36 1.52 1.56
0.00 0.00 0.00 0.00 0.00 0.00 0.01 0.03 0.06 0.13 0.12 0.13 0.20 0.43 0.44 0.32 0.31 0.31 0.32 0.33 0.42 0.61 0.71 0.81 0.91 0.92 0.93 0.90 0.85 0.85 0.88 0.85 0.83 0.82 0.82 0.78 0.75 0.79 0.88 0.90 0.96 1.01 1.11 1.13
0.01 0.00 0.00 0.00 0.00 0.01 0.03 0.07 0.13 0.26 0.34 0.30 0.31 0.48 0.52 0.44 0.39 0.37 0.41 0.49 0.65 0.91 1.06 1.19 1.27 1.17 1.10 1.09 1.13 1.01 0.92 0.85 0.81 0.81 0.80 0.74 0.68 0.70 0.72 0.73 0.81 0.79 0.78 0.78
0.03 0.03 0.01 0.01 0.02 0.05 0.10 0.16 0.24 0.37 0.45 0.57 0.70 0.85 0.68 0.58 0.58 0.65 0.75 0.83 1.00 1.26 1.43 1.52 1.53 1.43 1.23 1.10 1.09 1.03 0.92 0.81 0.71 0.70 0.74 0.73 0.66 0.66 0.67 0.65 0.62 0.58 0.59 0.63
0.05 0.11 0.07 0.03 0.07 0.11 0.22 0.37 0.50 0.74 0.74 0.67 0.87 1.09 0.84 0.69 0.71 0.74 0.80 0.92 1.10 1.22 1.30 1.34 1.30 1.29 1.18 1.08 0.99 0.95 0.84 0.71 0.65 0.69 0.70 0.72 0.62 0.56 0.58 0.56 0.56 0.51 0.49 0.51
0.12 0.22 0.21 0.15 0.21 0.29 0.37 0.45 0.54 0.63 0.78 0.85 1.04 1.23 0.92 0.71 0.69 0.75 0.87 0.91 0.90 0.88 0.98 1.07 1.13 1.04 1.00 0.92 0.87 0.94 0.94 0.83 0.81 0.84 0.89 0.81 0.67 0.62 0.59 0.54 0.53 0.49 0.49 0.52
0.18 0.25 0.30 0.34 0.40 0.47 0.51 0.46 0.43 0.54 0.75 0.83 0.94 0.97 0.75 0.62 0.62 0.64 0.72 0.72 0.70 0.74 0.78 0.84 0.92 0.88 0.89 0.83 0.80 0.89 0.93 0.95 1.02 1.10 1.06 0.88 0.76 0.68 0.60 0.53 0.48 0.47 0.50 0.53
0.12 0.13 0.15 0.16 0.16 0.24 0.43 0.56 0.51 0.53 0.60 0.84 0.76 0.60 0.54 0.51 0.53 0.54 0.56 0.56 0.52 0.56 0.56 0.55 0.55 0.56 0.63 0.63 0.60 0.64 0.71 0.82 0.98 1.05 0.94 0.79 0.67 0.57 0.51 0.52 0.48 0.47 0.51 0.52
0.04 0.04 0.03 0.04 0.06 0.15 0.37 0.49 0.52 0.52 0.48 0.47 0.42 0.40 0.30 0.29 0.34 0.33 0.32 0.33 0.32 0.32 0.33 0.31 0.28 0.28 0.33 0.33 0.35 0.39 0.47 0.62 0.84 0.93 0.80 0.63 0.56 0.52 0.48 0.46 0.42 0.40 0.40 0.42
0.01 0.03 0.05 0.05 0.06 0.14 0.38 0.42 0.46 0.35 0.20 0.17 0.23 0.24 0.17 0.18 0.26 0.26 0.27 0.29 0.25 0.23 0.23 0.24 0.22 0.20 0.20 0.20 0.23 0.30 0.36 0.50 0.60 0.62 0.57 0.47 0.41 0.39 0.38 0.37 0.37 0.38 0.40 0.41
0.03 0.08 0.11 0.09 0.12 0.33 0.59 0.46 0.39 0.31 0.16 0.10 0.10 0.11 0.12 0.16 0.20 0.19 0.22 0.27 0.24 0.20 0.21 0.21 0.21 0.20 0.21 0.22 0.23 0.32 0.37 0.39 0.44 0.52 0.50 0.43 0.38 0.35 0.35 0.33 0.35 0.43 0.43 0.41
0.11 0.13 0.16 0.16 0.19 0.37 0.46 0.31 0.26 0.34 0.33 0.12 0.08 0.08 0.10 0.11 0.14 0.13 0.13 0.17 0.17 0.14 0.13 0.13 0.13 0.12 0.12 0.12 0.11 0.13 0.17 0.22 0.27 0.30 0.35 0.34 0.29 0.30 0.33 0.33 0.38 0.42 0.42 0.46
0.23 0.20 0.23 0.23 0.25 0.37 0.31 0.14 0.11 0.23 0.43 0.17 0.06 0.05 0.04 0.05 0.08 0.06 0.06 0.06 0.05 0.04 0.03 0.03 0.03 0.03 0.03 0.02 0.03 0.04 0.05 0.06 0.09 0.10 0.14 0.18 0.19 0.22 0.28 0.37 0.43 0.41 0.39 0.43
0.14 0.21 0.29 0.37 0.46 0.62 0.42 0.18 0.13 0.30 0.40 0.15 0.04 0.01 0.01 0.01 0.02 0.02 0.03 0.03 0.01 0.00 0.00 0.00 0.00 0.01 0.01 0.01 0.01 0.02 0.02 0.02 0.02 0.02 0.04 0.07 0.11 0.17 0.25 0.32 0.31 0.31 0.34 0.37
0.20 0.32 0.46 0.55 0.71 0.88 0.57 0.34 0.30 0.27 0.14 0.06 0.01 0.00 0.00 0.00 0.00 0.01 0.02 0.02 0.01 0.00 0.00 0.00 0.00 0.00 0.00 0.00 0.00 0.00 0.00 0.00 0.00 0.00 0.01 0.02 0.04 0.07 0.12 0.20 0.23 0.26 0.29 0.30
0.21 0.44 0.61 0.60 0.62 0.57 0.41 0.30 0.20 0.15 0.09 0.02 0.00 0.00 0.00 0.00 0.00 0.00 0.01 0.01 0.01 0.00 0.00 0.00 0.00 0.00 0.00 0.00 0.00 0.00 0.00 0.00 0.00 0.00 0.00 0.00 0.01 0.02 0.06 0.12 0.17 0.21 0.27 0.29
0.06 0.12 0.16 0.18 0.21 0.19 0.16 0.11 0.07 0.06 0.05 0.01 0.00 0.00 0.00 0.00 0.00 0.00 0.00 0.01 0.01 0.00 0.00 0.00 0.00 0.00 0.00 0.00 0.00 0.00 0.00 0.00 0.00 0.00 0.00 0.00 0.01 0.01 0.03 0.06 0.13 0.21 0.24 0.23
0.02 0.02 0.02 0.04 0.05 0.06 0.07 0.05 0.03 0.03 0.02 0.01 0.00 0.00 0.00 0.00 0.00 0.00 0.00 0.01 0.01 0.01 0.00 0.00 0.00 0.00 0.00 0.00 0.00 0.00 0.00 0.00 0.00 0.00 0.00 0.00 0.00 0.01 0.02 0.02 0.06 0.13 0.15 0.14
0.01 0.01 0.02 0.01 0.01 0.02 0.04 0.02 0.01 0.02 0.01 0.00 0.00 0.00 0.00 0.00 0.00 0.00 0.00 0.00 0.01 0.01 0.00 0.00 0.00 0.00 0.00 0.00 0.00 0.00 0.00 0.00 0.00 0.00 0.00 0.00 0.00 0.01 0.01 0.02 0.03 0.05 0.05 0.07

GEFSCGP_prec_meanprecacc_078.txt.gz
Total_Precipitation_Accumulation
0.05 0.11 0.27 0.32 0.34 0.24 0.15 0.10 0.09 0.10 0.12 0.11 0.11 0.12 0.13 0.13 0.12 0.12 0.12 0.12 0.12 0.13 0.17 0.20 0.22 0.25 0.24 0.23 0.27 0.34 0.40 0.50 0.60 0.82 1.14 1.58 1.79 1.89 1.91 1.93 1.84 1.64 1.42 1.42
0.04 0.06 0.08 0.07 0.07 0.09 0.09 0.09 0.08 0.06 0.08 0.07 0.06 0.06 0.06 0.06 0.07 0.08 0.08 0.09 0.09 0.11 0.12 0.11 0.13 0.15 0.14 0.14 0.17 0.26 0.33 0.42 0.55 0.82 1.13 1.48 1.83 1.91 1.92 1.92 1.87 1.75 1.64 1.64
0.03 0.03 0.01 0.01 0.02 0.04 0.07 0.10 0.10 0.07 0.05 0.05 0.04 0.04 0.04 0.04 0.05 0.06 0.06 0.07 0.08 0.10 0.11 0.09 0.08 0.09 0.10 0.11 0.12 0.18 0.24 0.38 0.66 0.99 1.30 1.49 1.78 1.90 1.95 1.89 1.90 1.94 1.89 1.79
0.01 0.01 0.00 0.01 0.01 0.02 0.06 0.06 0.05 0.05 0.05 0.04 0.04 0.05 0.04 0.06 0.10 0.12 0.13 0.13 0.15 0.17 0.14 0.12 0.09 0.07 0.08 0.09 0.11 0.14 0.20 0.39 0.73 1.07 1.33 1.56 1.91 2.01 1.94 1.97 1.98 2.01 2.03 1.99
0.01 0.00 0.00 0.00 0.01 0.02 0.03 0.03 0.03 0.04 0.05 0.04 0.03 0.05 0.05 0.08 0.15 0.21 0.23 0.23 0.23 0.20 0.15 0.12 0.10 0.09 0.10 0.10 0.13 0.19 0.33 0.51 0.76 0.97 1.23 1.57 1.81 1.93 2.06 2.01 2.00 2.01 2.05 2.05
0.00 0.00 0.00 0.00 0.00 0.01 0.01 0.02 0.04 0.05 0.07 0.06 0.03 0.07 0.13 0.17 0.19 0.21 0.22 0.23 0.23 0.20 0.16 0.16 0.15 0.15 0.16 0.18 0.24 0.33 0.48 0.63 0.83 1.00 1.19 1.38 1.63 1.77 1.92 2.02 1.94 1.93 1.96 2.03
0.00 0.00 0.00 0.00 0.00 0.00 0.01 0.04 0.10 0.13 0.16 0.12 0.07 0.16 0.28 0.23 0.18 0.19 0.20 0.21 0.23 0.24 0.26 0.30 0.31 0.34 0.41 0.44 0.47 0.55 0.65 0.75 0.86 0.95 1.04 1.10 1.27 1.43 1.49 1.63 1.72 1.82 1.84 1.88
0.00 0.00 0.00 0.00 0.00 0.00 0.01 0.03 0.10 0.15 0.15 0.15 0.17 0.36 0.41 0.27 0.23 0.22 0.23 0.25 0.29 0.37 0.43 0.53 0.61 0.69 0.76 0.75 0.74 0.80 0.85 0.84 0.82 0.87 0.93 0.95 1.01 1.09 1.15 1.18 1.23 1.38 1.55 1.59
0.00 0.00 0.00 0.00 0.00 0.00 0.01 0.03 0.06 0.13 0.12 0.13 0.20 0.43 0.44 0.32 0.31 0.31 0.32 0.33 0.42 0.61 0.71 0.81 0.91 0.92 0.93 0.90 0.85 0.86 0.88 0.86 0.84 0.84 0.83 0.79 0.77 0.81 0.90 0.92 0.98 1.03 1.12 1.15
0.01 0.00 0.00 0.00 0.00 0.01 0.03 0.07 0.13 0.26 0.34 0.30 0.31 0.48 0.52 0.44 0.39 0.37 0.41 0.49 0.65 0.91 1.06 1.19 1.27 1.17 1.10 1.09 1.13 1.01 0.92 0.85 0.82 0.82 0.81 0.75 0.70 0.72 0.74 0.75 0.82 0.80 0.81 0.81
0.03 0.03 0.01 0.01 0.02 0.05 0.10 0.16 0.24 0.37 0.45 0.57 0.70 0.85 0.68 0.58 0.58 0.65 0.75 0.83 1.00 1.26 1.43 1.52 1.53 1.43 1.23 1.10 1.09 1.03 0.92 0.81 0.71 0.70 0.75 0.74 0.67 0.67 0.69 0.67 0.64 0.60 0.62 0.66
0.05 0.11 0.07 0.03 0.07 0.11 0.22 0.37 0.50 0.74 0.74 0.67 0.87 1.09 0.84 0.69 0.71 0.74 0.80 0.92 1.10 1.22 1.30 1.34 1.30 1.29 1.18 1.08 0.99 0.95 0.84 0.71 0.65 0.69 0.71 0.72 0.63 0.58 0.60 0.58 0.58 0.52 0.50 0.53
0.12 0.22 0.21 0.15 0.21 0.29 0.37 0.45 0.54 0.63 0.78 0.85 1.04 1.23 0.92 0.71 0.69 0.75 0.87 0.91 0.90 0.88 0.98 1.07 1.13 1.04 1.00 0.92 0.87 0.94 0.94 0.83 0.81 0.84 0.89 0.81 0.68 0.63 0.62 0.56 0.56 0.52 0.51 0.54
0.18 0.25 0.30 0.34 0.40 0.47 0.51 0.46 0.43 0.54 0.75 0.83 0.94 0.97 0.75 0.62 0.62 0.64 0.72 0.72 0.70 0.74 0.78 0.84 0.92 0.88 0.89 0.83 0.80 0.89 0.93 0.95 1.02 1.10 1.06 0.88 0.76 0.68 0.62 0.56 0.50 0.49 0.52 0.55
0.12 0.13 0.15 0.16 0.16 0.24 0.43 0.56 0.51 0.53 0.60 0.84 0.76 0.60 0.54 0.51 0.53 0.54 0.56 0.56 0.52 0.56 0.56 0.55 0.55 0.56 0.63 0.63 0.60 0.64 0.71 0.82 0.98 1.05 0.94 0.79 0.67 0.57 0.51 0.53 0.49 0.48 0.52 0.54
0.04 0.04 0.03 0.04 0.06 0.15 0.37 0.49 0.52 0.52 0.48 0.47 0.42 0.40 0.30 0.29 0.34 0.33 0.32 0.33 0.32 0.32 0.33 0.31 0.28 0.28 0.33 0.33 0.35 0.39 0.47 0.62 0.84 0.93 0.80 0.63 0.56 0.53 0.48 0.47 0.42 0.40 0.41 0.43
0.01 0.03 0.05 0.05 0.06 0.14 0.38 0.42 0.46 0.35 0.20 0.17 0.23 0.24 0.17 0.18 0.26 0.26 0.27 0.29 0.25 0.23 0.23 0.24 0.22 0.20 0.20 0.20 0.23 0.30 0.36 0.50 0.60 0.62 0.57 0.47 0.41 0.39 0.38 0.37 0.37 0.38 0.40 0.42
0.03 0.08 0.11 0.09 0.12 0.33 0.59 0.46 0.39 0.31 0.16 0.10 0.10 0.11 0.12 0.16 0.20 0.19 0.22 0.27 0.24 0.20 0.21 0.21 0.21 0.20 0.21 0.22 0.23 0.32 0.37 0.39 0.44 0.52 0.50 0.43 0.38 0.35 0.35 0.34 0.35 0.43 0.43 0.41
0.11 0.13 0.16 0.16 0.19 0.37 0.46 0.31 0.26 0.34 0.33 0.12 0.08 0.08 0.10 0.11 0.14 0.13 0.13 0.17 0.17 0.14 0.13 0.13 0.13 0.12 0.12 0.12 0.11 0.13 0.17 0.22 0.27 0.30 0.35 0.34 0.29 0.30 0.33 0.33 0.39 0.42 0.42 0.46
0.23 0.20 0.23 0.23 0.25 0.37 0.31 0.14 0.11 0.23 0.43 0.17 0.06 0.05 0.04 0.05 0.08 0.06 0.06 0.06 0.05 0.04 0.03 0.03 0.03 0.03 0.03 0.02 0.03 0.04 0.05 0.06 0.09 0.10 0.14 0.18 0.19 0.23 0.28 0.37 0.43 0.41 0.39 0.45
0.14 0.21 0.29 0.37 0.46 0.62 0.42 0.18 0.13 0.30 0.40 0.15 0.04 0.01 0.01 0.01 0.02 0.02 0.03 0.03 0.01 0.00 0.00 0.00 0.00 0.01 0.01 0.01 0.01 0.02 0.02 0.02 0.02 0.02 0.04 0.07 0.11 0.17 0.25 0.32 0.31 0.32 0.35 0.39
0.20 0.32 0.46 0.55 0.71 0.88 0.57 0.34 0.30 0.27 0.14 0.06 0.01 0.00 0.00 0.00 0.00 0.01 0.02 0.02 0.01 0.00 0.00 0.00 0.00 0.00 0.00 0.00 0.00 0.00 0.00 0.00 0.00 0.00 0.01 0.02 0.04 0.07 0.12 0.20 0.23 0.26 0.30 0.31
0.21 0.44 0.61 0.60 0.62 0.57 0.41 0.30 0.20 0.15 0.09 0.02 0.00 0.00 0.00 0.00 0.00 0.00 0.01 0.01 0.01 0.00 0.00 0.00 0.00 0.00 0.00 0.00 0.00 0.00 0.00 0.00 0.00 0.00 0.00 0.00 0.01 0.02 0.06 0.12 0.17 0.21 0.27 0.29
0.06 0.12 0.16 0.18 0.21 0.19 0.16 0.11 0.07 0.06 0.05 0.01 0.00 0.00 0.00 0.00 0.00 0.00 0.00 0.01 0.01 0.00 0.00 0.00 0.00 0.00 0.00 0.00 0.00 0.00 0.00 0.00 0.00 0.00 0.00 0.00 0.01 0.01 0.03 0.06 0.13 0.21 0.24 0.23
0.02 0.02 0.02 0.04 0.05 0.06 0.07 0.05 0.03 0.03 0.02 0.01 0.00 0.00 0.00 0.00 0.00 0.00 0.00 0.01 0.01 0.01 0.00 0.00 0.00 0.00 0.00 0.00 0.00 0.00 0.00 0.00 0.00 0.00 0.00 0.00 0.00 0.01 0.02 0.02 0.06 0.13 0.15 0.14
0.01 0.01 0.02 0.01 0.01 0.02 0.04 0.02 0.01 0.02 0.01 0.00 0.00 0.00 0.00 0.00 0.00 0.00 0.00 0.00 0.01 0.01 0.00 0.00 0.00 0.00 0.00 0.00 0.00 0.00 0.00 0.00 0.00 0.00 0.00 0.00 0.00 0.01 0.01 0.02 0.03 0.05 0.05 0.07

GEFSCGP_prec_meanprecacc_084.txt.gz
Total_Precipitation_Accumulation
0.07 0.12 0.28 0.33 0.34 0.25 0.15 0.10 0.09 0.10 0.12 0.11 0.12 0.13 0.13 0.13 0.12 0.12 0.12 0.12 0.12 0.13 0.17 0.20 0.22 0.25 0.24 0.23 0.27 0.34 0.40 0.50 0.60 0.82 1.15 1.58 1.80 1.91 1.92 1.94 1.85 1.64 1.42 1.42
0.05 0.06 0.08 0.07 0.08 0.09 0.09 0.09 0.08 0.06 0.08 0.07 0.06 0.06 0.06 0.06 0.07 0.08 0.08 0.09 0.09 0.11 0.12 0.11 0.13 0.15 0.14 0.14 0.17 0.26 0.33 0.42 0.56 0.82 1.14 1.49 1.85 1.92 1.93 1.93 1.88 1.76 1.65 1.65
0.04 0.04 0.02 0.02 0.02 0.04 0.07 0.10 0.10 0.07 0.05 0.05 0.04 0.04 0.04 0.04 0.05 0.06 0.06 0.07 0.08 0.10 0.11 0.09 0.08 0.09 0.10 0.11 0.12 0.18 0.24 0.38 0.66 1.00 1.32 1.51 1.80 1.92 1.97 1.91 1.91 1.95 1.90 1.80
0.02 0.01 0.01 0.01 0.01 0.03 0.07 0.06 0.05 0.05 0.05 0.04 0.04 0.05 0.04 0.06 0.10 0.12 0.13 0.13 0.15 0.17 0.14 0.12 0.09 0.07 0.08 0.09 0.11 0.14 0.20 0.40 0.73 1.08 1.34 1.57 1.92 2.03 1.99 2.02 2.00 2.02 2.05 2.01
0.02 0.01 0.01 0.01 0.01 0.02 0.03 0.03 0.03 0.04 0.05 0.04 0.03 0.05 0.05 0.08 0.15 0.21 0.23 0.23 0.23 0.20 0.15 0.12 0.10 0.09 0.10 0.10 0.13 0.20 0.33 0.52 0.77 0.97 1.23 1.58 1.83 1.94 2.10 2.05 2.02 2.02 2.07 2.07
0.01 0.00 0.00 0.00 0.00 0.01 0.01 0.02 0.04 0.05 0.07 0.06 0.03 0.07 0.13 0.17 0.19 0.21 0.22 0.23 0.23 0.20 0.16 0.16 0.15 0.15 0.16 0.18 0.24 0.33 0.49 0.64 0.84 1.00 1.20 1.38 1.64 1.79 1.95 2.04 1.97 1.95 1.99 2.07
0.00 0.00 0.00 0.00 0.00 0.00 0.01 0.04 0.10 0.13 0.16 0.12 0.07 0.16 0.28 0.23 0.18 0.19 0.20 0.21 0.23 0.24 0.26 0.30 0.31 0.34 0.41 0.44 0.47 0.55 0.65 0.75 0.87 0.96 1.05 1.11 1.28 1.45 1.52 1.67 1.76 1.86 1.86 1.90
0.00 0.00 0.00 0.00 0.00 0.00 0.01 0.03 0.10 0.15 0.15 0.15 0.17 0.36 0.41 0.27 0.23 0.22 0.23 0.25 0.29 0.37 0.43 0.53 0.61 0.69 0.76 0.75 0.74 0.80 0.85 0.84 0.82 0.87 0.93 0.96 1.03 1.10 1.16 1.20 1.26 1.42 1.58 1.61
0.00 0.00 0.00 0.00 0.00 0.00 0.01 0.03 0.06 0.13 0.12 0.13 0.20 0.43 0.44 0.32 0.31 0.31 0.32 0.33 0.42 0.61 0.71 0.81 0.91 0.92 0.93 0.90 0.85 0.86 0.88 0.86 0.84 0.84 0.84 0.79 0.78 0.84 0.92 0.94 1.01 1.07 1.16 1.18
0.01 0.00 0.00 0.00 0.00 0.01 0.03 0.07 0.13 0.26 0.34 0.30 0.31 0.48 0.52 0.44 0.39 0.37 0.41 0.49 0.65 0.91 1.06 1.19 1.27 1.17 1.10 1.09 1.13 1.01 0.92 0.85 0.82 0.82 0.82 0.76 0.71 0.74 0.76 0.76 0.83 0.82 0.83 0.82
0.03 0.03 0.01 0.01 0.02 0.05 0.10 0.16 0.24 0.37 0.45 0.57 0.70 0.85 0.68 0.58 0.58 0.65 0.75 0.83 1.00 1.26 1.43 1.52 1.53 1.43 1.23 1.10 1.09 1.03 0.92 0.81 0.71 0.70 0.75 0.74 0.69 0.69 0.71 0.69 0.66 0.61 0.63 0.67
0.05 0.11 0.07 0.03 0.07 0.11 0.22 0.37 0.50 0.74 0.74 0.67 0.87 1.09 0.84 0.69 0.71 0.74 0.80 0.92 1.10 1.22 1.30 1.34 1.30 1.29 1.18 1.08 0.99 0.95 0.84 0.71 0.65 0.69 0.71 0.73 0.65 0.60 0.61 0.60 0.60 0.54 0.51 0.54
0.12 0.22 0.21 0.15 0.21 0.29 0.37 0.45 0.54 0.63 0.78 0.85 1.04 1.23 0.92 0.71 0.69 0.75 0.87 0.91 0.90 0.88 0.98 1.07 1.13 1.04 1.00 0.92 0.87 0.94 0.94 0.83 0.81 0.84 0.89 0.82 0.69 0.65 0.63 0.58 0.57 0.53 0.52 0.55
0.18 0.25 0.30 0.34 0.40 0.47 0.51 0.46 0.43 0.54 0.75 0.83 0.94 0.97 0.75 0.62 0.62 0.64 0.72 0.72 0.70 0.74 0.78 0.84 0.92 0.88 0.89 0.83 0.80 0.89 0.93 0.95 1.02 1.10 1.06 0.89 0.77 0.70 0.63 0.57 0.51 0.50 0.54 0.58
0.12 0.13 0.15 0.16 0.16 0.24 0.43 0.56 0.51 0.53 0.60 0.84 0.76 0.60 0.54 0.51 0.53 0.54 0.56 0.56 0.52 0.56 0.56 0.55 0.55 0.56 0.63 0.63 0.60 0.64 0.71 0.82 0.98 1.05 0.94 0.80 0.68 0.58 0.52 0.54 0.49 0.50 0.56 0.58
0.04 0.04 0.03 0.04 0.06 0.15 0.37 0.49 0.52 0.52 0.48 0.47 0.42 0.40 0.30 0.29 0.34 0.33 0.32 0.33 0.32 0.32 0.33 0.31 0.28 0.28 0.33 0.33 0.35 0.39 0.47 0.62 0.84 0.93 0.80 0.64 0.56 0.53 0.48 0.47 0.42 0.41 0.42 0.47
0.01 0.03 0.05 0.05 0.06 0.14 0.38 0.42 0.46 0.35 0.20 0.17 0.23 0.24 0.17 0.18 0.26 0.26 0.27 0.29 0.25 0.23 0.23 0.24 0.22 0.20 0.20 0.20 0.23 0.30 0.36 0.50 0.60 0.62 0.57 0.47 0.41 0.39 0.38 0.37 0.37 0.38 0.40 0.43
0.03 0.08 0.11 0.09 0.12 0.33 0.59 0.46 0.39 0.31 0.16 0.10 0.10 0.11 0.12 0.16 0.20 0.19 0.22 0.27 0.24 0.20 0.21 0.21 0.21 0.20 0.21 0.22 0.23 0.32 0.37 0.39 0.44 0.52 0.50 0.43 0.38 0.35 0.35 0.34 0.35 0.43 0.44 0.42
0.11 0.13 0.16 0.16 0.19 0.37 0.46 0.31 0.26 0.34 0.33 0.12 0.08 0.08 0.10 0.11 0.14 0.13 0.13 0.17 0.17 0.14 0.13 0.13 0.13 0.12 0.12 0.12 0.11 0.13 0.17 0.22 0.27 0.30 0.35 0.34 0.29 0.30 0.33 0.33 0.39 0.43 0.43 0.47
0.23 0.20 0.23 0.23 0.25 0.37 0.31 0.14 0.11 0.23 0.43 0.17 0.06 0.05 0.04 0.05 0.08 0.06 0.06 0.06 0.05 0.04 0.03 0.03 0.03 0.03 0.03 0.02 0.03 0.04 0.05 0.06 0.09 0.10 0.14 0.18 0.19 0.23 0.28 0.37 0.43 0.42 0.40 0.46
0.14 0.21 0.29 0.37 0.46 0.62 0.42 0.18 0.13 0.30 0.40 0.15 0.04 0.01 0.01 0.01 0.02 0.02 0.03 0.03 0.01 0.00 0.00 0.00 0.00 0.01 0.01 0.01 0.01 0.02 0.02 0.02 0.02 0.02 0.04 0.07 0.11 0.17 0.25 0.32 0.32 0.32 0.35 0.39
0.20 0.32 0.46 0.55 0.71 0.88 0.57 0.34 0.30 0.27 0.14 0.06 0.01 0.00 0.00 0.00 0.00 0.01 0.02 0.02 0.01 0.00 0.00 0.00 0.00 0.00 0.00 0.00 0.00 0.00 0.00 0.00 0.00 0.00 0.01 0.02 0.04 0.07 0.12 0.20 0.23 0.26 0.30 0.31
0.21 0.44 0.61 0.60 0.62 0.57 0.41 0.30 0.20 0.15 0.09 0.02 0.00 0.00 0.00 0.00 0.00 0.00 0.01 0.01 0.01 0.00 0.00 0.00 0.00 0.00 0.00 0.00 0.00 0.00 0.00 0.00 0.00 0.00 0.00 0.00 0.01 0.02 0.06 0.12 0.17 0.21 0.27 0.29
0.06 0.12 0.16 0.18 0.21 0.19 0.16 0.11 0.07 0.06 0.05 0.01 0.00 0.00 0.00 0.00 0.00 0.00 0.00 0.01 0.01 0.00 0.00 0.00 0.00 0.00 0.00 0.00 0.00 0.00 0.00 0.00 0.00 0.00 0.00 0.00 0.01 0.01 0.03 0.06 0.13 0.21 0.24 0.23
0.02 0.02 0.02 0.04 0.05 0.06 0.07 0.05 0.03 0.03 0.02 0.01 0.00 0.00 0.00 0.00 0.00 0.00 0.00 0.01 0.01 0.01 0.00 0.00 0.00 0.00 0.00 0.00 0.00 0.00 0.00 0.00 0.00 0.00 0.00 0.00 0.00 0.01 0.02 0.02 0.06 0.13 0.15 0.14
0.01 0.01 0.02 0.01 0.01 0.02 0.04 0.02 0.01 0.02 0.01 0.00 0.00 0.00 0.00 0.00 0.00 0.00 0.00 0.00 0.01 0.01 0.00 0.00 0.00 0.00 0.00 0.00 0.00 0.00 0.00 0.00 0.00 0.00 0.00 0.00 0.00 0.01 0.01 0.02 0.03 0.05 0.05 0.07

GEFSCGP_prec_meanprecacc_090.txt.gz
Total_Precipitation_Accumulation
0.07 0.12 0.28 0.35 0.39 0.31 0.20 0.12 0.10 0.11 0.13 0.12 0.12 0.13 0.13 0.13 0.12 0.13 0.12 0.12 0.12 0.13 0.17 0.20 0.22 0.25 0.24 0.24 0.28 0.35 0.40 0.50 0.62 0.84 1.17 1.60 1.82 1.94 1.95 1.98 1.88 1.67 1.45 1.45
0.05 0.07 0.10 0.10 0.11 0.13 0.11 0.09 0.08 0.07 0.09 0.07 0.06 0.06 0.06 0.06 0.07 0.08 0.08 0.09 0.09 0.11 0.12 0.11 0.13 0.15 0.14 0.15 0.17 0.27 0.33 0.42 0.56 0.84 1.17 1.52 1.88 1.95 1.97 1.97 1.91 1.79 1.68 1.69
0.06 0.05 0.04 0.04 0.05 0.06 0.07 0.10 0.11 0.08 0.06 0.05 0.04 0.04 0.04 0.04 0.05 0.06 0.06 0.07 0.08 0.10 0.11 0.09 0.08 0.09 0.11 0.11 0.12 0.18 0.24 0.39 0.67 1.01 1.33 1.53 1.82 1.94 2.00 1.95 1.95 1.98 1.94 1.83
0.06 0.05 0.03 0.04 0.04 0.04 0.08 0.07 0.05 0.05 0.05 0.04 0.04 0.05 0.04 0.06 0.10 0.12 0.13 0.13 0.15 0.17 0.14 0.12 0.09 0.07 0.08 0.09 0.11 0.14 0.20 0.40 0.74 1.08 1.34 1.59 1.94 2.05 2.03 2.05 2.04 2.05 2.07 2.03
0.05 0.04 0.02 0.02 0.03 0.03 0.04 0.04 0.04 0.04 0.05 0.04 0.03 0.05 0.05 0.08 0.15 0.21 0.23 0.23 0.23 0.20 0.15 0.12 0.10 0.09 0.10 0.10 0.13 0.20 0.34 0.52 0.78 0.99 1.24 1.60 1.86 1.98 2.13 2.08 2.05 2.05 2.10 2.11
0.04 0.02 0.01 0.02 0.02 0.01 0.02 0.03 0.04 0.05 0.07 0.06 0.03 0.07 0.13 0.17 0.19 0.21 0.22 0.23 0.23 0.20 0.16 0.16 0.15 0.15 0.16 0.18 0.24 0.33 0.49 0.64 0.85 1.02 1.22 1.41 1.67 1.82 1.97 2.07 2.00 1.99 2.03 2.11
0.02 0.01 0.01 0.01 0.00 0.01 0.01 0.04 0.10 0.13 0.16 0.12 0.07 0.16 0.28 0.23 0.18 0.19 0.20 0.21 0.23 0.24 0.26 0.30 0.31 0.34 0.41 0.44 0.48 0.56 0.65 0.76 0.87 0.97 1.06 1.13 1.30 1.47 1.54 1.70 1.79 1.91 1.92 1.95
0.00 0.00 0.00 0.00 0.00 0.00 0.01 0.03 0.10 0.15 0.15 0.15 0.17 0.36 0.41 0.27 0.23 0.22 0.23 0.25 0.29 0.37 0.43 0.53 0.61 0.69 0.76 0.75 0.74 0.81 0.86 0.84 0.83 0.87 0.94 0.97 1.04 1.12 1.20 1.25 1.29 1.47 1.63 1.66
0.01 0.00 0.00 0.00 0.00 0.00 0.01 0.03 0.06 0.13 0.12 0.13 0.20 0.43 0.44 0.32 0.31 0.31 0.32 0.33 0.42 0.61 0.71 0.81 0.91 0.92 0.93 0.90 0.85 0.86 0.89 0.86 0.84 0.84 0.84 0.80 0.79 0.86 0.96 0.99 1.05 1.12 1.22 1.23
0.02 0.01 0.00 0.00 0.00 0.01 0.03 0.07 0.13 0.26 0.34 0.30 0.31 0.48 0.52 0.44 0.39 0.37 0.41 0.49 0.65 0.91 1.06 1.19 1.27 1.17 1.10 1.09 1.13 1.01 0.92 0.85 0.82 0.82 0.82 0.76 0.73 0.77 0.81 0.81 0.87 0.85 0.87 0.87
0.03 0.03 0.01 0.01 0.02 0.05 0.10 0.16 0.24 0.37 0.45 0.57 0.70 0.85 0.68 0.58 0.58 0.65 0.75 0.83 1.00 1.26 1.43 1.52 1.53 1.43 1.23 1.10 1.09 1.04 0.93 0.82 0.71 0.70 0.76 0.76 0.71 0.72 0.76 0.75 0.70 0.64 0.66 0.71
0.05 0.11 0.07 0.03 0.07 0.11 0.22 0.37 0.50 0.74 0.74 0.67 0.87 1.09 0.84 0.69 0.71 0.74 0.80 0.92 1.10 1.22 1.30 1.34 1.30 1.29 1.18 1.08 1.00 0.95 0.85 0.71 0.65 0.70 0.72 0.75 0.67 0.61 0.64 0.63 0.64 0.57 0.54 0.58
0.12 0.22 0.21 0.15 0.21 0.29 0.37 0.45 0.54 0.63 0.78 0.85 1.04 1.23 0.92 0.71 0.69 0.75 0.87 0.91 0.90 0.88 0.98 1.07 1.13 1.04 1.00 0.92 0.87 0.95 0.95 0.83 0.81 0.84 0.90 0.83 0.70 0.66 0.64 0.59 0.60 0.56 0.54 0.57
0.18 0.25 0.30 0.34 0.40 0.47 0.51 0.46 0.43 0.54 0.75 0.83 0.94 0.97 0.75 0.62 0.62 0.64 0.72 0.72 0.70 0.74 0.78 0.84 0.92 0.88 0.89 0.83 0.80 0.89 0.94 0.95 1.02 1.10 1.06 0.89 0.77 0.70 0.64 0.59 0.53 0.53 0.56 0.60
0.12 0.13 0.15 0.16 0.16 0.24 0.43 0.56 0.51 0.53 0.60 0.84 0.76 0.60 0.54 0.51 0.53 0.54 0.56 0.56 0.52 0.56 0.56 0.55 0.55 0.56 0.63 0.63 0.60 0.65 0.72 0.83 0.98 1.05 0.94 0.80 0.68 0.58 0.53 0.56 0.51 0.51 0.58 0.61
0.04 0.04 0.03 0.04 0.06 0.15 0.37 0.49 0.52 0.52 0.48 0.47 0.42 0.40 0.30 0.29 0.34 0.33 0.32 0.33 0.32 0.32 0.33 0.31 0.28 0.28 0.33 0.33 0.35 0.39 0.47 0.62 0.85 0.93 0.81 0.64 0.56 0.53 0.48 0.47 0.44 0.43 0.44 0.50
0.01 0.03 0.05 0.05 0.06 0.14 0.38 0.42 0.46 0.35 0.20 0.17 0.23 0.24 0.17 0.18 0.26 0.26 0.27 0.29 0.25 0.23 0.23 0.24 0.22 0.20 0.20 0.20 0.23 0.30 0.36 0.50 0.60 0.62 0.58 0.47 0.41 0.39 0.38 0.37 0.38 0.40 0.42 0.45
0.03 0.08 0.11 0.09 0.12 0.33 0.59 0.46 0.39 0.31 0.16 0.10 0.10 0.11 0.12 0.16 0.20 0.19 0.22 0.27 0.24 0.20 0.21 0.21 0.21 0.20 0.21 0.22 0.23 0.32 0.37 0.39 0.45 0.52 0.50 0.44 0.39 0.36 0.35 0.34 0.35 0.43 0.44 0.43
0.11 0.13 0.16 0.16 0.19 0.37 0.46 0.31 0.26 0.34 0.33 0.12 0.08 0.08 0.10 0.11 0.14 0.13 0.13 0.17 0.17 0.14 0.13 0.13 0.13 0.12 0.12 0.12 0.11 0.13 0.17 0.22 0.27 0.30 0.35 0.34 0.29 0.30 0.34 0.33 0.39 0.43 0.44 0.47
0.23 0.20 0.23 0.23 0.25 0.37 0.31 0.14 0.11 0.23 0.43 0.17 0.06 0.05 0.04 0.05 0.08 0.06 0.06 0.06 0.05 0.04 0.03 0.03 0.03 0.03 0.03 0.02 0.03 0.04 0.05 0.06 0.09 0.10 0.14 0.18 0.19 0.23 0.29 0.38 0.44 0.42 0.41 0.46
0.14 0.21 0.29 0.37 0.46 0.62 0.42 0.18 0.13 0.30 0.40 0.15 0.04 0.01 0.01 0.01 0.02 0.02 0.03 0.03 0.01 0.00 0.00 0.00 0.00 0.01 0.01 0.01 0.01 0.02 0.02 0.02 0.02 0.02 0.04 0.07 0.11 0.17 0.25 0.33 0.32 0.33 0.36 0.39
0.20 0.32 0.46 0.55 0.71 0.88 0.57 0.34 0.30 0.27 0.14 0.06 0.01 0.00 0.00 0.00 0.00 0.01 0.02 0.02 0.01 0.00 0.00 0.00 0.00 0.00 0.00 0.00 0.00 0.00 0.00 0.00 0.00 0.00 0.01 0.02 0.04 0.07 0.12 0.20 0.23 0.26 0.30 0.32
0.21 0.44 0.61 0.60 0.62 0.57 0.41 0.30 0.20 0.15 0.09 0.02 0.00 0.00 0.00 0.00 0.00 0.00 0.01 0.01 0.01 0.00 0.00 0.00 0.00 0.00 0.00 0.00 0.00 0.00 0.00 0.00 0.00 0.00 0.00 0.00 0.01 0.02 0.06 0.12 0.17 0.21 0.27 0.29
0.06 0.12 0.16 0.18 0.21 0.19 0.16 0.11 0.07 0.06 0.05 0.01 0.00 0.00 0.00 0.00 0.00 0.00 0.00 0.01 0.01 0.00 0.00 0.00 0.00 0.00 0.00 0.00 0.00 0.00 0.00 0.00 0.00 0.00 0.00 0.00 0.01 0.01 0.03 0.06 0.13 0.21 0.24 0.23
0.02 0.02 0.02 0.04 0.05 0.06 0.07 0.05 0.03 0.03 0.02 0.01 0.00 0.00 0.00 0.00 0.00 0.00 0.00 0.01 0.01 0.01 0.00 0.00 0.00 0.00 0.00 0.00 0.00 0.00 0.00 0.00 0.00 0.00 0.00 0.00 0.00 0.01 0.02 0.02 0.06 0.13 0.15 0.14
0.01 0.01 0.02 0.01 0.01 0.02 0.04 0.02 0.01 0.02 0.01 0.00 0.00 0.00 0.00 0.00 0.00 0.00 0.00 0.00 0.01 0.01 0.00 0.00 0.00 0.00 0.00 0.00 0.00 0.00 0.00 0.00 0.00 0.00 0.00 0.00 0.00 0.01 0.01 0.02 0.03 0.05 0.05 0.07

GEFSCGP_prec_meanprecacc_096.txt.gz
Total_Precipitation_Accumulation
0.09 0.16 0.33 0.42 0.47 0.41 0.28 0.18 0.14 0.14 0.17 0.15 0.13 0.13 0.13 0.14 0.13 0.13 0.12 0.12 0.12 0.13 0.17 0.20 0.22 0.25 0.24 0.24 0.28 0.35 0.40 0.50 0.62 0.84 1.17 1.60 1.82 1.94 1.96 1.98 1.89 1.68 1.46 1.46
0.11 0.11 0.15 0.17 0.18 0.21 0.17 0.14 0.11 0.09 0.10 0.08 0.06 0.06 0.06 0.07 0.07 0.08 0.08 0.09 0.09 0.11 0.12 0.11 0.13 0.15 0.14 0.15 0.17 0.27 0.33 0.42 0.56 0.85 1.17 1.52 1.88 1.96 1.98 1.98 1.93 1.80 1.68 1.70
0.14 0.11 0.09 0.11 0.12 0.14 0.15 0.15 0.14 0.10 0.06 0.05 0.04 0.04 0.04 0.04 0.05 0.06 0.06 0.07 0.08 0.10 0.11 0.09 0.08 0.09 0.11 0.11 0.12 0.18 0.24 0.39 0.67 1.01 1.33 1.53 1.82 1.95 2.01 1.96 1.97 1.99 1.94 1.84
0.17 0.13 0.09 0.09 0.10 0.12 0.15 0.11 0.08 0.06 0.05 0.04 0.04 0.05 0.04 0.06 0.10 0.12 0.13 0.13 0.15 0.17 0.14 0.12 0.09 0.07 0.08 0.09 0.11 0.14 0.20 0.40 0.74 1.08 1.34 1.59 1.94 2.05 2.03 2.05 2.04 2.06 2.08 2.03
0.14 0.12 0.09 0.07 0.07 0.08 0.09 0.07 0.05 0.05 0.05 0.04 0.03 0.05 0.05 0.08 0.15 0.21 0.23 0.23 0.23 0.20 0.15 0.12 0.10 0.09 0.10 0.10 0.13 0.20 0.34 0.52 0.78 0.99 1.24 1.60 1.86 1.98 2.14 2.08 2.05 2.05 2.11 2.13
0.14 0.08 0.06 0.06 0.05 0.04 0.05 0.04 0.05 0.06 0.07 0.06 0.03 0.07 0.13 0.17 0.19 0.21 0.22 0.23 0.23 0.20 0.16 0.16 0.15 0.15 0.16 0.18 0.24 0.33 0.49 0.64 0.85 1.02 1.22 1.41 1.67 1.82 1.97 2.07 2.01 1.99 2.04 2.14
0.09 0.05 0.03 0.02 0.02 0.02 0.02 0.04 0.10 0.13 0.16 0.12 0.07 0.16 0.28 0.23 0.18 0.19 0.20 0.21 0.23 0.24 0.26 0.30 0.31 0.34 0.41 0.44 0.48 0.56 0.65 0.76 0.87 0.97 1.06 1.13 1.30 1.47 1.54 1.71 1.79 1.91 1.92 1.97
0.04 0.02 0.02 0.01 0.00 0.01 0.01 0.03 0.10 0.15 0.15 0.15 0.17 0.36 0.41 0.27 0.23 0.22 0.23 0.25 0.29 0.37 0.43 0.53 0.61 0.69 0.76 0.75 0.74 0.81 0.86 0.84 0.83 0.87 0.94 0.97 1.04 1.13 1.21 1.26 1.30 1.48 1.64 1.68
0.03 0.02 0.01 0.00 0.00 0.00 0.01 0.03 0.06 0.13 0.12 0.13 0.20 0.43 0.44 0.32 0.31 0.31 0.32 0.33 0.42 0.61 0.71 0.81 0.91 0.92 0.93 0.90 0.85 0.86 0.89 0.86 0.84 0.84 0.84 0.80 0.79 0.86 0.96 0.99 1.06 1.13 1.23 1.25
0.04 0.02 0.01 0.00 0.00 0.01 0.03 0.07 0.13 0.26 0.34 0.30 0.31 0.48 0.52 0.44 0.39 0.37 0.41 0.49 0.65 0.91 1.06 1.19 1.27 1.17 1.10 1.09 1.13 1.02 0.93 0.85 0.82 0.82 0.82 0.76 0.73 0.77 0.81 0.82 0.88 0.87 0.89 0.89
0.04 0.04 0.01 0.01 0.02 0.05 0.10 0.16 0.24 0.37 0.45 0.57 0.70 0.85 0.68 0.58 0.58 0.65 0.75 0.83 1.00 1.26 1.43 1.52 1.53 1.43 1.23 1.10 1.09 1.04 0.93 0.82 0.71 0.70 0.76 0.76 0.71 0.72 0.77 0.76 0.71 0.65 0.68 0.73
0.06 0.11 0.07 0.03 0.07 0.11 0.22 0.37 0.50 0.74 0.74 0.67 0.87 1.09 0.84 0.69 0.71 0.74 0.80 0.92 1.10 1.22 1.30 1.34 1.30 1.29 1.18 1.08 1.00 0.95 0.85 0.71 0.65 0.70 0.73 0.75 0.67 0.61 0.64 0.64 0.65 0.57 0.55 0.58
0.12 0.22 0.21 0.15 0.21 0.29 0.37 0.45 0.54 0.63 0.78 0.85 1.04 1.23 0.92 0.71 0.69 0.75 0.87 0.91 0.90 0.88 0.98 1.07 1.13 1.04 1.00 0.92 0.87 0.95 0.95 0.83 0.81 0.84 0.90 0.83 0.70 0.66 0.64 0.60 0.60 0.56 0.54 0.58
0.18 0.25 0.30 0.34 0.40 0.47 0.51 0.46 0.43 0.54 0.75 0.83 0.94 0.97 0.75 0.62 0.62 0.64 0.72 0.72 0.70 0.74 0.78 0.84 0.92 0.88 0.89 0.83 0.80 0.89 0.94 0.95 1.02 1.10 1.06 0.89 0.77 0.70 0.64 0.59 0.53 0.53 0.57 0.60
0.12 0.13 0.15 0.16 0.16 0.24 0.43 0.56 0.51 0.53 0.60 0.84 0.76 0.60 0.54 0.51 0.53 0.54 0.56 0.56 0.52 0.56 0.56 0.55 0.55 0.56 0.63 0.63 0.60 0.65 0.72 0.83 0.98 1.05 0.94 0.80 0.68 0.58 0.53 0.56 0.51 0.52 0.58 0.61
0.04 0.04 0.03 0.04 0.06 0.15 0.37 0.49 0.52 0.52 0.48 0.47 0.42 0.40 0.30 0.29 0.34 0.33 0.32 0.33 0.32 0.32 0.33 0.31 0.28 0.28 0.33 0.33 0.35 0.39 0.47 0.62 0.85 0.93 0.81 0.64 0.56 0.53 0.48 0.47 0.44 0.43 0.44 0.50
0.01 0.03 0.05 0.05 0.06 0.14 0.38 0.42 0.46 0.35 0.20 0.17 0.23 0.24 0.17 0.18 0.26 0.26 0.27 0.29 0.25 0.23 0.23 0.24 0.22 0.20 0.20 0.20 0.23 0.30 0.36 0.50 0.60 0.62 0.58 0.47 0.41 0.39 0.38 0.37 0.38 0.40 0.42 0.45
0.03 0.08 0.11 0.09 0.12 0.33 0.59 0.46 0.39 0.31 0.16 0.10 0.10 0.11 0.12 0.16 0.20 0.19 0.22 0.27 0.24 0.20 0.21 0.21 0.21 0.20 0.21 0.22 0.23 0.32 0.37 0.39 0.45 0.52 0.50 0.44 0.39 0.36 0.35 0.34 0.35 0.43 0.44 0.43
0.11 0.13 0.16 0.16 0.19 0.37 0.46 0.31 0.26 0.34 0.33 0.12 0.08 0.08 0.10 0.11 0.14 0.13 0.13 0.17 0.17 0.14 0.13 0.13 0.13 0.12 0.12 0.12 0.11 0.13 0.17 0.22 0.27 0.30 0.35 0.34 0.29 0.30 0.34 0.33 0.39 0.43 0.44 0.47
0.23 0.20 0.23 0.23 0.25 0.37 0.31 0.14 0.11 0.23 0.43 0.17 0.06 0.05 0.04 0.05 0.08 0.06 0.06 0.06 0.05 0.04 0.03 0.03 0.03 0.03 0.03 0.02 0.03 0.04 0.05 0.06 0.09 0.10 0.14 0.18 0.19 0.23 0.29 0.38 0.44 0.42 0.41 0.46
0.14 0.21 0.29 0.37 0.46 0.62 0.42 0.18 0.13 0.30 0.40 0.15 0.04 0.01 0.01 0.01 0.02 0.02 0.03 0.03 0.01 0.00 0.00 0.00 0.00 0.01 0.01 0.01 0.01 0.02 0.02 0.02 0.02 0.02 0.04 0.07 0.11 0.17 0.25 0.33 0.32 0.33 0.36 0.39
0.20 0.32 0.46 0.55 0.71 0.88 0.57 0.34 0.30 0.27 0.14 0.06 0.01 0.00 0.00 0.00 0.00 0.01 0.02 0.02 0.01 0.00 0.00 0.00 0.00 0.00 0.00 0.00 0.00 0.00 0.00 0.00 0.00 0.00 0.01 0.02 0.04 0.07 0.12 0.20 0.23 0.26 0.30 0.32
0.21 0.44 0.61 0.60 0.62 0.57 0.41 0.30 0.20 0.15 0.09 0.02 0.00 0.00 0.00 0.00 0.00 0.00 0.01 0.01 0.01 0.00 0.00 0.00 0.00 0.00 0.00 0.00 0.00 0.00 0.00 0.00 0.00 0.00 0.00 0.00 0.01 0.02 0.06 0.12 0.17 0.21 0.27 0.29
0.06 0.12 0.16 0.18 0.21 0.19 0.16 0.11 0.07 0.06 0.05 0.01 0.00 0.00 0.00 0.00 0.00 0.00 0.00 0.01 0.01 0.00 0.00 0.00 0.00 0.00 0.00 0.00 0.00 0.00 0.00 0.00 0.00 0.00 0.00 0.00 0.01 0.01 0.03 0.06 0.13 0.21 0.24 0.23
0.02 0.02 0.02 0.04 0.05 0.06 0.07 0.05 0.03 0.03 0.02 0.01 0.00 0.00 0.00 0.00 0.00 0.00 0.00 0.01 0.01 0.01 0.00 0.00 0.00 0.00 0.00 0.00 0.00 0.00 0.00 0.00 0.00 0.00 0.00 0.00 0.00 0.01 0.02 0.02 0.06 0.13 0.15 0.14
0.01 0.01 0.02 0.01 0.01 0.02 0.04 0.02 0.01 0.02 0.01 0.00 0.00 0.00 0.00 0.00 0.00 0.00 0.00 0.00 0.01 0.01 0.00 0.00 0.00 0.00 0.00 0.00 0.00 0.00 0.00 0.00 0.00 0.00 0.00 0.00 0.00 0.01 0.01 0.02 0.03 0.05 0.05 0.07

GEFSCGP_prec_meanprecacc_102.txt.gz
Total_Precipitation_Accumulation
0.12 0.21 0.37 0.46 0.53 0.45 0.32 0.21 0.15 0.15 0.18 0.16 0.14 0.13 0.14 0.14 0.13 0.13 0.12 0.12 0.12 0.13 0.17 0.20 0.22 0.25 0.24 0.24 0.28 0.35 0.40 0.50 0.62 0.84 1.17 1.60 1.82 1.95 1.96 1.99 1.89 1.68 1.46 1.46
0.15 0.14 0.17 0.21 0.23 0.26 0.20 0.15 0.12 0.10 0.11 0.09 0.06 0.06 0.06 0.07 0.07 0.08 0.09 0.09 0.09 0.11 0.12 0.11 0.13 0.15 0.14 0.15 0.17 0.27 0.33 0.42 0.56 0.85 1.17 1.52 1.88 1.96 1.98 1.99 1.95 1.81 1.69 1.70
0.17 0.14 0.13 0.15 0.17 0.18 0.17 0.16 0.15 0.11 0.08 0.06 0.04 0.04 0.04 0.04 0.05 0.06 0.06 0.07 0.08 0.10 0.11 0.09 0.08 0.09 0.11 0.11 0.12 0.18 0.24 0.39 0.67 1.01 1.33 1.53 1.82 1.95 2.01 1.96 1.97 2.00 1.95 1.84
0.22 0.16 0.12 0.12 0.13 0.14 0.17 0.13 0.09 0.07 0.06 0.05 0.04 0.06 0.04 0.06 0.10 0.12 0.13 0.13 0.15 0.17 0.14 0.12 0.09 0.07 0.08 0.09 0.11 0.14 0.20 0.40 0.74 1.08 1.34 1.59 1.94 2.05 2.03 2.06 2.04 2.06 2.08 2.03
0.16 0.15 0.12 0.09 0.09 0.10 0.12 0.09 0.07 0.06 0.06 0.04 0.03 0.05 0.05 0.08 0.15 0.21 0.23 0.23 0.23 0.20 0.15 0.12 0.10 0.09 0.10 0.10 0.13 0.20 0.34 0.52 0.78 0.99 1.24 1.60 1.86 1.98 2.14 2.08 2.05 2.06 2.11 2.13
0.17 0.11 0.09 0.08 0.07 0.06 0.07 0.06 0.06 0.07 0.07 0.06 0.03 0.07 0.13 0.17 0.19 0.21 0.22 0.23 0.23 0.20 0.16 0.16 0.15 0.15 0.16 0.18 0.24 0.33 0.49 0.64 0.85 1.02 1.22 1.41 1.67 1.82 1.97 2.07 2.01 2.00 2.04 2.14
0.12 0.07 0.05 0.05 0.05 0.03 0.03 0.06 0.11 0.13 0.16 0.12 0.07 0.16 0.28 0.23 0.18 0.19 0.20 0.21 0.23 0.24 0.26 0.30 0.31 0.34 0.41 0.44 0.48 0.56 0.65 0.76 0.87 0.97 1.06 1.13 1.30 1.47 1.54 1.71 1.79 1.91 1.92 1.97
0.05 0.03 0.03 0.02 0.01 0.01 0.01 0.03 0.11 0.15 0.15 0.15 0.17 0.36 0.41 0.27 0.23 0.22 0.23 0.25 0.29 0.37 0.43 0.53 0.61 0.69 0.76 0.75 0.74 0.81 0.86 0.84 0.83 0.87 0.94 0.97 1.04 1.13 1.21 1.26 1.30 1.48 1.64 1.68
0.04 0.03 0.02 0.01 0.01 0.01 0.01 0.03 0.06 0.13 0.12 0.13 0.20 0.43 0.44 0.32 0.31 0.31 0.32 0.33 0.42 0.61 0.71 0.81 0.91 0.92 0.93 0.90 0.85 0.86 0.89 0.86 0.84 0.84 0.84 0.80 0.79 0.86 0.97 0.99 1.06 1.13 1.23 1.26
0.05 0.02 0.01 0.01 0.01 0.01 0.03 0.07 0.13 0.26 0.34 0.30 0.31 0.48 0.52 0.44 0.39 0.37 0.41 0.49 0.65 0.91 1.06 1.19 1.27 1.17 1.10 1.09 1.13 1.02 0.93 0.85 0.82 0.82 0.82 0.76 0.73 0.77 0.81 0.82 0.88 0.87 0.89 0.90
0.05 0.04 0.02 0.01 0.02 0.05 0.10 0.16 0.24 0.37 0.45 0.57 0.70 0.85 0.68 0.58 0.58 0.65 0.75 0.83 1.00 1.26 1.43 1.52 1.53 1.43 1.23 1.10 1.09 1.04 0.93 0.82 0.71 0.70 0.76 0.76 0.71 0.72 0.77 0.76 0.71 0.65 0.68 0.74
0.06 0.11 0.07 0.03 0.07 0.11 0.22 0.37 0.50 0.74 0.74 0.67 0.87 1.09 0.84 0.69 0.71 0.74 0.80 0.92 1.10 1.22 1.30 1.34 1.30 1.29 1.18 1.08 1.00 0.95 0.85 0.71 0.65 0.70 0.73 0.75 0.67 0.61 0.64 0.64 0.65 0.57 0.55 0.59
0.12 0.22 0.21 0.15 0.21 0.29 0.37 0.45 0.54 0.63 0.78 0.85 1.04 1.23 0.92 0.71 0.69 0.75 0.87 0.91 0.90 0.88 0.98 1.07 1.13 1.04 1.00 0.92 0.87 0.95 0.95 0.83 0.81 0.84 0.90 0.83 0.70 0.66 0.64 0.60 0.61 0.56 0.55 0.59
0.18 0.25 0.30 0.34 0.40 0.47 0.51 0.46 0.43 0.54 0.75 0.83 0.94 0.97 0.75 0.62 0.62 0.64 0.72 0.72 0.70 0.74 0.78 0.84 0.92 0.88 0.89 0.83 0.80 0.89 0.94 0.95 1.02 1.10 1.06 0.89 0.77 0.70 0.64 0.59 0.53 0.53 0.57 0.61
0.12 0.13 0.15 0.16 0.16 0.24 0.43 0.56 0.51 0.53 0.60 0.84 0.76 0.60 0.54 0.51 0.53 0.54 0.56 0.56 0.52 0.56 0.56 0.55 0.55 0.56 0.63 0.63 0.60 0.65 0.72 0.83 0.98 1.05 0.94 0.80 0.68 0.58 0.53 0.56 0.51 0.52 0.58 0.61
0.04 0.04 0.03 0.04 0.06 0.15 0.37 0.49 0.52 0.52 0.48 0.47 0.42 0.40 0.30 0.29 0.34 0.33 0.32 0.33 0.32 0.32 0.33 0.31 0.28 0.28 0.33 0.33 0.35 0.39 0.47 0.62 0.85 0.93 0.81 0.64 0.56 0.53 0.48 0.47 0.44 0.43 0.44 0.50
0.01 0.03 0.05 0.05 0.06 0.14 0.38 0.42 0.46 0.35 0.20 0.17 0.23 0.24 0.17 0.18 0.26 0.26 0.27 0.29 0.25 0.23 0.23 0.24 0.22 0.20 0.20 0.20 0.23 0.30 0.36 0.50 0.60 0.62 0.58 0.47 0.41 0.39 0.38 0.37 0.38 0.40 0.42 0.45
0.03 0.08 0.11 0.09 0.12 0.33 0.59 0.46 0.39 0.31 0.16 0.10 0.10 0.11 0.12 0.16 0.20 0.19 0.22 0.27 0.24 0.20 0.21 0.21 0.21 0.20 0.21 0.22 0.23 0.32 0.37 0.39 0.45 0.52 0.50 0.44 0.39 0.36 0.35 0.34 0.35 0.43 0.44 0.43
0.11 0.13 0.16 0.16 0.19 0.37 0.46 0.31 0.26 0.34 0.33 0.12 0.08 0.08 0.10 0.11 0.14 0.13 0.13 0.17 0.17 0.14 0.13 0.13 0.13 0.12 0.12 0.12 0.11 0.13 0.17 0.22 0.27 0.30 0.35 0.34 0.29 0.30 0.34 0.33 0.39 0.43 0.44 0.47
0.23 0.20 0.23 0.23 0.25 0.37 0.31 0.14 0.11 0.23 0.43 0.17 0.06 0.05 0.04 0.05 0.08 0.06 0.06 0.06 0.05 0.04 0.03 0.03 0.03 0.03 0.03 0.02 0.03 0.04 0.05 0.06 0.09 0.10 0.14 0.18 0.19 0.23 0.29 0.38 0.44 0.42 0.41 0.46
0.14 0.21 0.29 0.37 0.46 0.62 0.42 0.18 0.13 0.30 0.40 0.15 0.04 0.01 0.01 0.01 0.02 0.02 0.03 0.03 0.01 0.00 0.00 0.00 0.00 0.01 0.01 0.01 0.01 0.02 0.02 0.02 0.02 0.02 0.04 0.07 0.11 0.17 0.25 0.33 0.32 0.33 0.36 0.39
0.20 0.32 0.46 0.55 0.71 0.88 0.57 0.34 0.30 0.27 0.14 0.06 0.01 0.00 0.00 0.00 0.00 0.01 0.02 0.02 0.01 0.00 0.00 0.00 0.00 0.00 0.00 0.00 0.00 0.00 0.00 0.00 0.00 0.00 0.01 0.02 0.04 0.07 0.12 0.20 0.23 0.26 0.30 0.32
0.21 0.44 0.61 0.60 0.62 0.57 0.41 0.30 0.20 0.15 0.09 0.02 0.00 0.00 0.00 0.00 0.00 0.00 0.01 0.01 0.01 0.00 0.00 0.00 0.00 0.00 0.00 0.00 0.00 0.00 0.00 0.00 0.00 0.00 0.00 0.00 0.01 0.02 0.06 0.12 0.17 0.21 0.27 0.29
0.06 0.12 0.16 0.18 0.21 0.19 0.16 0.11 0.07 0.06 0.05 0.01 0.00 0.00 0.00 0.00 0.00 0.00 0.00 0.01 0.01 0.00 0.00 0.00 0.00 0.00 0.00 0.00 0.00 0.00 0.00 0.00 0.00 0.00 0.00 0.00 0.01 0.01 0.03 0.06 0.13 0.21 0.24 0.23
0.02 0.02 0.02 0.04 0.05 0.06 0.07 0.05 0.03 0.03 0.02 0.01 0.00 0.00 0.00 0.00 0.00 0.00 0.00 0.01 0.01 0.01 0.00 0.00 0.00 0.00 0.00 0.00 0.00 0.00 0.00 0.00 0.00 0.00 0.00 0.00 0.00 0.01 0.02 0.02 0.06 0.13 0.15 0.14
0.01 0.01 0.02 0.01 0.01 0.02 0.04 0.02 0.01 0.02 0.01 0.00 0.00 0.00 0.00 0.00 0.00 0.00 0.00 0.00 0.01 0.01 0.00 0.00 0.00 0.00 0.00 0.00 0.00 0.00 0.00 0.00 0.00 0.00 0.00 0.00 0.00 0.01 0.01 0.02 0.03 0.05 0.05 0.07

GEFSCGP_prec_meanprecacc_108.txt.gz
Total_Precipitation_Accumulation
0.14 0.25 0.42 0.49 0.55 0.48 0.33 0.22 0.16 0.16 0.18 0.17 0.14 0.13 0.14 0.14 0.13 0.13 0.12 0.12 0.12 0.13 0.17 0.20 0.22 0.25 0.24 0.24 0.28 0.35 0.40 0.50 0.62 0.84 1.17 1.60 1.82 1.95 1.97 1.99 1.90 1.69 1.46 1.46
0.19 0.17 0.20 0.23 0.26 0.28 0.22 0.17 0.14 0.11 0.12 0.10 0.07 0.06 0.06 0.07 0.07 0.08 0.09 0.09 0.09 0.11 0.12 0.11 0.13 0.15 0.14 0.15 0.17 0.27 0.33 0.42 0.56 0.85 1.17 1.52 1.88 1.97 1.99 1.99 1.95 1.83 1.70 1.70
0.18 0.15 0.14 0.16 0.19 0.20 0.19 0.18 0.15 0.11 0.10 0.07 0.05 0.04 0.04 0.04 0.05 0.06 0.06 0.07 0.08 0.10 0.11 0.09 0.08 0.09 0.11 0.11 0.12 0.18 0.24 0.39 0.67 1.01 1.33 1.53 1.82 1.95 2.01 1.97 1.97 2.00 1.95 1.85
0.22 0.17 0.13 0.14 0.14 0.15 0.19 0.14 0.10 0.08 0.08 0.06 0.05 0.06 0.05 0.06 0.10 0.12 0.13 0.13 0.15 0.17 0.14 0.12 0.09 0.07 0.08 0.09 0.11 0.14 0.20 0.40 0.74 1.08 1.34 1.59 1.94 2.05 2.03 2.06 2.05 2.06 2.09 2.04
0.17 0.16 0.14 0.11 0.11 0.12 0.15 0.11 0.09 0.08 0.08 0.05 0.03 0.05 0.05 0.08 0.16 0.21 0.23 0.23 0.23 0.20 0.15 0.12 0.10 0.09 0.10 0.10 0.13 0.20 0.34 0.52 0.78 0.99 1.24 1.60 1.86 1.98 2.14 2.08 2.06 2.06 2.13 2.15
0.20 0.14 0.12 0.12 0.11 0.09 0.10 0.08 0.07 0.08 0.08 0.06 0.03 0.07 0.13 0.17 0.19 0.21 0.22 0.23 0.23 0.20 0.16 0.16 0.15 0.15 0.16 0.18 0.24 0.33 0.49 0.64 0.85 1.02 1.22 1.41 1.67 1.82 1.97 2.07 2.01 2.00 2.06 2.16
0.15 0.11 0.09 0.08 0.08 0.05 0.05 0.07 0.13 0.14 0.17 0.13 0.07 0.16 0.28 0.23 0.18 0.19 0.20 0.21 0.23 0.24 0.26 0.30 0.31 0.34 0.41 0.44 0.48 0.56 0.65 0.76 0.87 0.97 1.06 1.13 1.30 1.47 1.54 1.71 1.80 1.92 1.93 1.99
0.06 0.05 0.05 0.04 0.03 0.03 0.02 0.05 0.12 0.16 0.16 0.15 0.17 0.36 0.41 0.27 0.23 0.22 0.23 0.25 0.29 0.37 0.43 0.53 0.61 0.69 0.76 0.75 0.74 0.81 0.86 0.84 0.83 0.87 0.94 0.97 1.04 1.13 1.21 1.26 1.30 1.48 1.65 1.69
0.05 0.03 0.03 0.02 0.02 0.01 0.02 0.04 0.07 0.14 0.12 0.13 0.20 0.43 0.44 0.32 0.31 0.31 0.32 0.33 0.42 0.61 0.71 0.81 0.91 0.92 0.93 0.90 0.85 0.86 0.89 0.86 0.84 0.84 0.84 0.80 0.79 0.86 0.97 1.00 1.07 1.14 1.24 1.26
0.05 0.03 0.02 0.02 0.01 0.01 0.03 0.07 0.13 0.26 0.34 0.30 0.31 0.48 0.52 0.44 0.39 0.37 0.41 0.49 0.65 0.91 1.06 1.19 1.27 1.17 1.10 1.09 1.13 1.02 0.93 0.85 0.82 0.82 0.82 0.76 0.73 0.78 0.81 0.82 0.89 0.87 0.89 0.91
0.05 0.04 0.02 0.02 0.03 0.05 0.10 0.16 0.24 0.37 0.45 0.57 0.70 0.85 0.68 0.58 0.58 0.65 0.75 0.83 1.00 1.26 1.43 1.52 1.53 1.43 1.23 1.10 1.10 1.04 0.93 0.82 0.72 0.71 0.76 0.76 0.71 0.73 0.77 0.76 0.71 0.66 0.69 0.75
0.06 0.11 0.08 0.03 0.07 0.11 0.22 0.37 0.50 0.74 0.74 0.67 0.87 1.09 0.84 0.69 0.71 0.74 0.80 0.92 1.10 1.22 1.30 1.34 1.30 1.29 1.18 1.08 1.00 0.95 0.85 0.71 0.65 0.70 0.73 0.75 0.67 0.61 0.64 0.64 0.66 0.58 0.55 0.60
0.12 0.22 0.21 0.15 0.21 0.29 0.37 0.45 0.54 0.63 0.78 0.85 1.04 1.23 0.92 0.71 0.69 0.75 0.87 0.91 0.90 0.88 0.98 1.07 1.13 1.04 1.00 0.92 0.87 0.95 0.95 0.83 0.81 0.84 0.90 0.83 0.70 0.66 0.64 0.60 0.61 0.57 0.56 0.59
0.18 0.25 0.30 0.34 0.40 0.47 0.51 0.46 0.43 0.54 0.75 0.83 0.94 0.97 0.75 0.62 0.62 0.64 0.72 0.72 0.70 0.74 0.78 0.84 0.92 0.88 0.89 0.83 0.80 0.89 0.94 0.95 1.02 1.10 1.06 0.89 0.77 0.70 0.64 0.59 0.54 0.54 0.58 0.62
0.12 0.13 0.15 0.16 0.16 0.24 0.43 0.56 0.51 0.53 0.60 0.84 0.76 0.60 0.54 0.51 0.53 0.54 0.56 0.56 0.52 0.56 0.56 0.55 0.55 0.56 0.63 0.63 0.60 0.65 0.72 0.83 0.98 1.05 0.94 0.80 0.68 0.58 0.53 0.56 0.51 0.52 0.59 0.63
0.04 0.04 0.03 0.04 0.06 0.15 0.37 0.49 0.52 0.52 0.48 0.47 0.42 0.40 0.30 0.29 0.34 0.33 0.32 0.33 0.32 0.32 0.33 0.31 0.28 0.28 0.33 0.33 0.35 0.39 0.47 0.62 0.85 0.93 0.81 0.64 0.56 0.53 0.48 0.47 0.44 0.43 0.45 0.51
0.01 0.03 0.05 0.05 0.06 0.14 0.38 0.42 0.46 0.35 0.20 0.17 0.23 0.24 0.17 0.18 0.26 0.26 0.27 0.29 0.25 0.23 0.23 0.24 0.22 0.20 0.20 0.20 0.23 0.30 0.36 0.50 0.60 0.62 0.58 0.47 0.41 0.39 0.38 0.37 0.38 0.40 0.42 0.45
0.03 0.08 0.11 0.09 0.12 0.33 0.59 0.46 0.39 0.31 0.16 0.10 0.10 0.11 0.12 0.16 0.20 0.19 0.22 0.27 0.24 0.20 0.21 0.21 0.21 0.20 0.21 0.22 0.23 0.32 0.37 0.39 0.45 0.52 0.50 0.44 0.39 0.36 0.35 0.34 0.35 0.43 0.44 0.43
0.11 0.13 0.16 0.16 0.19 0.37 0.46 0.31 0.26 0.34 0.33 0.12 0.08 0.08 0.10 0.11 0.14 0.13 0.13 0.17 0.17 0.14 0.13 0.13 0.13 0.12 0.12 0.12 0.11 0.13 0.17 0.22 0.27 0.30 0.35 0.34 0.29 0.30 0.34 0.33 0.39 0.43 0.44 0.48
0.23 0.20 0.23 0.23 0.25 0.37 0.31 0.14 0.11 0.23 0.43 0.17 0.06 0.05 0.04 0.05 0.08 0.06 0.06 0.06 0.05 0.04 0.03 0.03 0.03 0.03 0.03 0.02 0.03 0.04 0.05 0.06 0.09 0.10 0.14 0.18 0.19 0.23 0.29 0.38 0.44 0.42 0.41 0.46
0.14 0.21 0.29 0.37 0.46 0.62 0.42 0.18 0.13 0.30 0.40 0.15 0.04 0.01 0.01 0.01 0.02 0.02 0.03 0.03 0.01 0.00 0.00 0.00 0.00 0.01 0.01 0.01 0.01 0.02 0.02 0.02 0.02 0.02 0.04 0.07 0.11 0.17 0.25 0.33 0.32 0.33 0.36 0.39
0.20 0.32 0.46 0.55 0.71 0.88 0.57 0.34 0.30 0.27 0.14 0.06 0.01 0.00 0.00 0.00 0.00 0.01 0.02 0.02 0.01 0.00 0.00 0.00 0.00 0.00 0.00 0.00 0.00 0.00 0.00 0.00 0.00 0.00 0.01 0.02 0.04 0.07 0.12 0.20 0.23 0.26 0.30 0.32
0.21 0.44 0.61 0.60 0.62 0.57 0.41 0.30 0.20 0.15 0.09 0.02 0.00 0.00 0.00 0.00 0.00 0.00 0.01 0.01 0.01 0.00 0.00 0.00 0.00 0.00 0.00 0.00 0.00 0.00 0.00 0.00 0.00 0.00 0.00 0.00 0.01 0.02 0.06 0.12 0.17 0.21 0.27 0.29
0.06 0.12 0.16 0.18 0.21 0.19 0.16 0.11 0.07 0.06 0.05 0.01 0.00 0.00 0.00 0.00 0.00 0.00 0.00 0.01 0.01 0.00 0.00 0.00 0.00 0.00 0.00 0.00 0.00 0.00 0.00 0.00 0.00 0.00 0.00 0.00 0.01 0.01 0.03 0.06 0.13 0.21 0.24 0.23
0.02 0.02 0.02 0.04 0.05 0.06 0.07 0.05 0.03 0.03 0.02 0.01 0.00 0.00 0.00 0.00 0.00 0.00 0.00 0.01 0.01 0.01 0.00 0.00 0.00 0.00 0.00 0.00 0.00 0.00 0.00 0.00 0.00 0.00 0.00 0.00 0.00 0.01 0.02 0.02 0.06 0.13 0.15 0.14
0.01 0.01 0.02 0.01 0.01 0.02 0.04 0.02 0.01 0.02 0.01 0.00 0.00 0.00 0.00 0.00 0.00 0.00 0.00 0.00 0.01 0.01 0.00 0.00 0.00 0.00 0.00 0.00 0.00 0.00 0.00 0.00 0.00 0.00 0.00 0.00 0.00 0.01 0.01 0.02 0.03 0.05 0.05 0.07